Wetterdaten: Donnerstag, 18.08.2016
Datum Zeit Temp. A. Feuchte A. Luftdruck Regen Wind Richtung Richtung Sonnenschein ET UV Solar Taupunkt Windchill Windben Empfang
18.08.2016 00:00 14,9 C 86 % 1010,1 hPa 0,0 l/m 0,0 km/h (0 Bft) O 85 0 min 0,000 mm 0,0 UV-I 0 W/m 12,6 C 14,9 C 1,6 km/h (1 Bft) 100,00 %
18.08.2016 00:02 14,8 C 87 % 1010,1 hPa 0,0 l/m 0,0 km/h (0 Bft) O 85 0 min 0,000 mm 0,0 UV-I 0 W/m 12,7 C 14,8 C 1,6 km/h (1 Bft) 100,00 %
18.08.2016 00:04 14,7 C 87 % 1010,1 hPa 0,0 l/m 0,0 km/h (0 Bft) O 85 0 min 0,000 mm 0,0 UV-I 0 W/m 12,6 C 14,7 C 0,0 km/h (0 Bft) 100,00 %
18.08.2016 00:06 14,7 C 87 % 1010,1 hPa 0,0 l/m 0,0 km/h (0 Bft) O 85 0 min 0,000 mm 0,0 UV-I 0 W/m 12,6 C 14,7 C 0,0 km/h (0 Bft) 100,00 %
18.08.2016 00:08 14,7 C 88 % 1010,1 hPa 0,0 l/m 0,0 km/h (0 Bft) O 85 0 min 0,000 mm 0,0 UV-I 0 W/m 12,7 C 14,7 C 0,0 km/h (0 Bft) 100,00 %
18.08.2016 00:10 14,7 C 88 % 1010,2 hPa 0,0 l/m 0,1 km/h (0 Bft) O 85 0 min 0,000 mm 0,0 UV-I 0 W/m 12,7 C 14,7 C 1,6 km/h (1 Bft) 100,00 %
18.08.2016 00:12 14,7 C 88 % 1010,2 hPa 0,0 l/m 0,0 km/h (0 Bft) O 85 0 min 0,000 mm 0,0 UV-I 0 W/m 12,7 C 14,7 C 1,6 km/h (1 Bft) 97,87 %
18.08.2016 00:14 14,7 C 88 % 1010,1 hPa 0,0 l/m 1,5 km/h (1 Bft) O 85 0 min 0,000 mm 0,0 UV-I 0 W/m 12,7 C 14,7 C 3,2 km/h (1 Bft) 100,00 %
18.08.2016 00:16 14,8 C 88 % 1010,2 hPa 0,0 l/m 2,6 km/h (1 Bft) O 85 0 min 0,000 mm 0,0 UV-I 0 W/m 12,8 C 14,8 C 4,8 km/h (1 Bft) 97,56 %
18.08.2016 00:18 14,8 C 87 % 1010,2 hPa 0,0 l/m 1,7 km/h (1 Bft) O 85 0 min 0,000 mm 0,0 UV-I 0 W/m 12,7 C 14,8 C 3,2 km/h (1 Bft) 100,00 %
18.08.2016 00:20 14,9 C 87 % 1010,1 hPa 0,0 l/m 1,9 km/h (1 Bft) O 85 0 min 0,000 mm 0,0 UV-I 0 W/m 12,8 C 14,9 C 3,2 km/h (1 Bft) 100,00 %
18.08.2016 00:22 14,9 C 87 % 1010,1 hPa 0,0 l/m 1,6 km/h (1 Bft) O 85 0 min 0,000 mm 0,0 UV-I 0 W/m 12,8 C 14,9 C 3,2 km/h (1 Bft) 100,00 %
18.08.2016 00:24 15,0 C 87 % 1010,1 hPa 0,0 l/m 0,3 km/h (0 Bft) O 85 0 min 0,000 mm 0,0 UV-I 0 W/m 12,9 C 15,0 C 1,6 km/h (1 Bft) 98,00 %
18.08.2016 00:26 15,0 C 87 % 1010,1 hPa 0,0 l/m 0,3 km/h (0 Bft) O 85 0 min 0,000 mm 0,0 UV-I 0 W/m 12,9 C 15,0 C 1,6 km/h (1 Bft) 100,00 %
18.08.2016 00:28 15,0 C 87 % 1010,1 hPa 0,0 l/m 0,0 km/h (0 Bft) O 85 0 min 0,000 mm 0,0 UV-I 0 W/m 12,9 C 15,0 C 1,6 km/h (1 Bft) 100,00 %
18.08.2016 00:30 15,0 C 87 % 1010,1 hPa 0,0 l/m 0,0 km/h (0 Bft) O 85 0 min 0,000 mm 0,0 UV-I 0 W/m 12,9 C 15,0 C 0,0 km/h (0 Bft) 100,00 %
18.08.2016 00:32 14,9 C 87 % 1010,0 hPa 0,0 l/m 0,9 km/h (0 Bft) O 85 0 min 0,000 mm 0,0 UV-I 0 W/m 12,8 C 14,9 C 3,2 km/h (1 Bft) 97,56 %
18.08.2016 00:34 14,8 C 87 % 1010,0 hPa 0,0 l/m 1,6 km/h (1 Bft) O 85 0 min 0,000 mm 0,0 UV-I 0 W/m 12,7 C 14,8 C 3,2 km/h (1 Bft) 98,00 %
18.08.2016 00:36 14,8 C 88 % 1010,0 hPa 0,0 l/m 1,4 km/h (1 Bft) O 85 0 min 0,000 mm 0,0 UV-I 0 W/m 12,8 C 14,8 C 3,2 km/h (1 Bft) 98,00 %
18.08.2016 00:38 14,8 C 88 % 1010,0 hPa 0,0 l/m 0,7 km/h (0 Bft) O 85 0 min 0,000 mm 0,0 UV-I 0 W/m 12,8 C 14,8 C 1,6 km/h (1 Bft) 97,14 %
18.08.2016 00:40 14,8 C 88 % 1010,1 hPa 0,0 l/m 0,7 km/h (0 Bft) O 85 0 min 0,000 mm 0,0 UV-I 0 W/m 12,8 C 14,8 C 1,6 km/h (1 Bft) 97,87 %
18.08.2016 00:42 14,8 C 88 % 1010,0 hPa 0,0 l/m 1,5 km/h (1 Bft) O 85 0 min 0,000 mm 0,0 UV-I 0 W/m 12,8 C 14,8 C 3,2 km/h (1 Bft) 96,30 %
18.08.2016 00:44 14,8 C 88 % 1010,0 hPa 0,0 l/m 1,6 km/h (1 Bft) O 85 0 min 0,000 mm 0,0 UV-I 0 W/m 12,8 C 14,8 C 3,2 km/h (1 Bft) 98,00 %
18.08.2016 00:46 14,8 C 88 % 1010,0 hPa 0,0 l/m 2,9 km/h (1 Bft) O 86 0 min 0,000 mm 0,0 UV-I 0 W/m 12,8 C 14,8 C 4,8 km/h (1 Bft) 97,14 %
18.08.2016 00:48 14,9 C 88 % 1010,0 hPa 0,0 l/m 1,1 km/h (1 Bft) O 86 0 min 0,000 mm 0,0 UV-I 0 W/m 12,9 C 14,9 C 3,2 km/h (1 Bft) 96,23 %
18.08.2016 00:50 14,9 C 88 % 1010,0 hPa 0,0 l/m 2,3 km/h (1 Bft) O 86 0 min 0,000 mm 0,0 UV-I 0 W/m 12,9 C 14,9 C 3,2 km/h (1 Bft) 94,74 %
18.08.2016 00:52 14,9 C 87 % 1010,0 hPa 0,0 l/m 2,6 km/h (1 Bft) O 86 0 min 0,000 mm 0,0 UV-I 0 W/m 12,8 C 14,9 C 4,8 km/h (1 Bft) 96,30 %
18.08.2016 00:54 15,0 C 87 % 1010,0 hPa 0,0 l/m 3,4 km/h (1 Bft) O 94 0 min 0,000 mm 0,0 UV-I 0 W/m 12,9 C 15,0 C 6,4 km/h (2 Bft) 98,00 %
18.08.2016 00:56 15,0 C 87 % 1010,0 hPa 0,0 l/m 1,7 km/h (1 Bft) O 94 0 min 0,000 mm 0,0 UV-I 0 W/m 12,9 C 15,0 C 3,2 km/h (1 Bft) 95,74 %
18.08.2016 00:58 15,0 C 87 % 1010,0 hPa 0,0 l/m 1,7 km/h (1 Bft) O 94 0 min 0,000 mm 0,0 UV-I 0 W/m 12,9 C 15,0 C 3,2 km/h (1 Bft) 96,00 %
18.08.2016 01:00 14,8 C 87 % 1010,0 hPa 0,0 l/m 0,1 km/h (0 Bft) O 94 0 min 0,000 mm 0,0 UV-I 0 W/m 12,7 C 14,8 C 1,6 km/h (1 Bft) 97,87 %
18.08.2016 01:02 14,7 C 88 % 1010,0 hPa 0,0 l/m 0,0 km/h (0 Bft) O 94 0 min 0,000 mm 0,0 UV-I 0 W/m 12,7 C 14,7 C 0,0 km/h (0 Bft) 97,22 %
18.08.2016 01:04 14,6 C 88 % 1010,0 hPa 0,0 l/m 0,7 km/h (0 Bft) O 94 0 min 0,000 mm 0,0 UV-I 0 W/m 12,6 C 14,6 C 1,6 km/h (1 Bft) 98,31 %
18.08.2016 01:06 14,4 C 89 % 1010,0 hPa 0,0 l/m 0,3 km/h (0 Bft) O 94 0 min 0,000 mm 0,0 UV-I 0 W/m 12,6 C 14,4 C 1,6 km/h (1 Bft) 100,00 %
18.08.2016 01:08 14,4 C 89 % 1009,9 hPa 0,0 l/m 1,0 km/h (0 Bft) O 94 0 min 0,000 mm 0,0 UV-I 0 W/m 12,6 C 14,4 C 3,2 km/h (1 Bft) 100,00 %
18.08.2016 01:10 14,3 C 89 % 1009,8 hPa 0,0 l/m 0,0 km/h (0 Bft) O 94 0 min 0,000 mm 0,0 UV-I 0 W/m 12,5 C 14,3 C 0,0 km/h (0 Bft) 96,00 %
18.08.2016 01:12 14,3 C 89 % 1009,8 hPa 0,0 l/m 0,0 km/h (0 Bft) O 94 0 min 0,000 mm 0,0 UV-I 0 W/m 12,5 C 14,3 C 0,0 km/h (0 Bft) 100,00 %
18.08.2016 01:14 14,3 C 89 % 1009,8 hPa 0,0 l/m 0,0 km/h (0 Bft) O 94 0 min 0,000 mm 0,0 UV-I 0 W/m 12,5 C 14,3 C 0,0 km/h (0 Bft) 100,00 %
18.08.2016 01:16 14,4 C 89 % 1009,8 hPa 0,0 l/m 0,0 km/h (0 Bft) O 94 0 min 0,000 mm 0,0 UV-I 0 W/m 12,6 C 14,4 C 0,0 km/h (0 Bft) 98,00 %
18.08.2016 01:18 14,4 C 90 % 1009,8 hPa 0,0 l/m 0,0 km/h (0 Bft) O 94 0 min 0,000 mm 0,0 UV-I 0 W/m 12,8 C 14,4 C 1,6 km/h (1 Bft) 100,00 %
18.08.2016 01:20 14,4 C 89 % 1009,8 hPa 0,0 l/m 0,8 km/h (0 Bft) O 94 0 min 0,000 mm 0,0 UV-I 0 W/m 12,6 C 14,4 C 1,6 km/h (1 Bft) 100,00 %
18.08.2016 01:22 14,4 C 89 % 1009,8 hPa 0,0 l/m 1,8 km/h (1 Bft) O 94 0 min 0,000 mm 0,0 UV-I 0 W/m 12,6 C 14,4 C 4,8 km/h (1 Bft) 100,00 %
18.08.2016 01:24 14,3 C 89 % 1009,8 hPa 0,0 l/m 4,6 km/h (1 Bft) NO 55 0 min 0,000 mm 0,0 UV-I 0 W/m 12,5 C 14,3 C 6,4 km/h (2 Bft) 100,00 %
18.08.2016 01:26 14,2 C 90 % 1009,8 hPa 0,0 l/m 3,2 km/h (1 Bft) NO 55 0 min 0,000 mm 0,0 UV-I 0 W/m 12,6 C 14,2 C 4,8 km/h (1 Bft) 100,00 %
18.08.2016 01:28 14,2 C 90 % 1009,8 hPa 0,0 l/m 2,2 km/h (1 Bft) NO 55 0 min 0,000 mm 0,0 UV-I 0 W/m 12,6 C 14,2 C 3,2 km/h (1 Bft) 97,87 %
18.08.2016 01:30 14,2 C 90 % 1009,7 hPa 0,0 l/m 0,4 km/h (0 Bft) NO 55 0 min 0,000 mm 0,0 UV-I 0 W/m 12,6 C 14,2 C 1,6 km/h (1 Bft) 100,00 %
18.08.2016 01:32 14,3 C 90 % 1009,7 hPa 0,0 l/m 0,0 km/h (0 Bft) NO 55 0 min 0,000 mm 0,0 UV-I 0 W/m 12,7 C 14,3 C 0,0 km/h (0 Bft) 100,00 %
18.08.2016 01:34 14,2 C 90 % 1009,7 hPa 0,0 l/m 0,0 km/h (0 Bft) NO 55 0 min 0,000 mm 0,0 UV-I 0 W/m 12,6 C 14,2 C 0,0 km/h (0 Bft) 97,87 %
18.08.2016 01:36 14,2 C 90 % 1009,7 hPa 0,0 l/m 0,0 km/h (0 Bft) NO 55 0 min 0,000 mm 0,0 UV-I 0 W/m 12,6 C 14,2 C 0,0 km/h (0 Bft) 100,00 %
18.08.2016 01:38 14,1 C 91 % 1009,7 hPa 0,0 l/m 0,0 km/h (0 Bft) NO 55 0 min 0,000 mm 0,0 UV-I 0 W/m 12,7 C 14,1 C 0,0 km/h (0 Bft) 97,87 %
18.08.2016 01:40 14,1 C 91 % 1009,6 hPa 0,0 l/m 0,0 km/h (0 Bft) NO 55 0 min 0,000 mm 0,0 UV-I 0 W/m 12,7 C 14,1 C 0,0 km/h (0 Bft) 100,00 %
18.08.2016 01:42 14,1 C 91 % 1009,6 hPa 0,0 l/m 0,0 km/h (0 Bft) NO 55 0 min 0,000 mm 0,0 UV-I 0 W/m 12,7 C 14,1 C 0,0 km/h (0 Bft) 100,00 %
18.08.2016 01:44 14,0 C 91 % 1009,6 hPa 0,0 l/m 0,0 km/h (0 Bft) NO 55 0 min 0,000 mm 0,0 UV-I 0 W/m 12,6 C 14,0 C 0,0 km/h (0 Bft) 100,00 %
18.08.2016 01:46 13,9 C 91 % 1009,6 hPa 0,0 l/m 0,0 km/h (0 Bft) NO 55 0 min 0,000 mm 0,0 UV-I 0 W/m 12,5 C 13,9 C 0,0 km/h (0 Bft) 100,00 %
18.08.2016 01:48 13,9 C 90 % 1009,6 hPa 0,0 l/m 0,1 km/h (0 Bft) NO 55 0 min 0,000 mm 0,0 UV-I 0 W/m 12,3 C 13,9 C 1,6 km/h (1 Bft) 100,00 %
18.08.2016 01:50 13,8 C 90 % 1009,6 hPa 0,0 l/m 0,4 km/h (0 Bft) NO 55 0 min 0,000 mm 0,0 UV-I 0 W/m 12,2 C 13,8 C 1,6 km/h (1 Bft) 100,00 %
18.08.2016 01:52 13,7 C 90 % 1009,5 hPa 0,0 l/m 0,3 km/h (0 Bft) NO 55 0 min 0,000 mm 0,0 UV-I 0 W/m 12,1 C 13,7 C 1,6 km/h (1 Bft) 100,00 %
18.08.2016 01:54 13,4 C 91 % 1009,5 hPa 0,0 l/m 0,0 km/h (0 Bft) NO 55 0 min 0,000 mm 0,0 UV-I 0 W/m 12,0 C 13,4 C 0,0 km/h (0 Bft) 100,00 %
18.08.2016 01:56 13,4 C 92 % 1009,5 hPa 0,0 l/m 0,0 km/h (0 Bft) NO 55 0 min 0,000 mm 0,0 UV-I 0 W/m 12,1 C 13,4 C 0,0 km/h (0 Bft) 97,87 %
18.08.2016 01:58 13,4 C 92 % 1009,5 hPa 0,0 l/m 0,0 km/h (0 Bft) NO 55 0 min 0,000 mm 0,0 UV-I 0 W/m 12,1 C 13,4 C 0,0 km/h (0 Bft) 100,00 %
18.08.2016 02:00 13,4 C 93 % 1009,5 hPa 0,0 l/m 0,0 km/h (0 Bft) NO 55 0 min 0,000 mm 0,0 UV-I 0 W/m 12,3 C 13,4 C 0,0 km/h (0 Bft) 98,00 %
18.08.2016 02:02 13,5 C 92 % 1009,5 hPa 0,0 l/m 0,0 km/h (0 Bft) NO 55 0 min 0,000 mm 0,0 UV-I 0 W/m 12,2 C 13,5 C 0,0 km/h (0 Bft) 100,00 %
18.08.2016 02:04 13,6 C 92 % 1009,5 hPa 0,0 l/m 0,0 km/h (0 Bft) NO 55 0 min 0,000 mm 0,0 UV-I 0 W/m 12,3 C 13,6 C 0,0 km/h (0 Bft) 100,00 %
18.08.2016 02:06 13,6 C 92 % 1009,4 hPa 0,0 l/m 0,0 km/h (0 Bft) NO 55 0 min 0,000 mm 0,0 UV-I 0 W/m 12,3 C 13,6 C 0,0 km/h (0 Bft) 100,00 %
18.08.2016 02:08 13,5 C 92 % 1009,3 hPa 0,0 l/m 0,0 km/h (0 Bft) NO 55 0 min 0,000 mm 0,0 UV-I 0 W/m 12,2 C 13,5 C 0,0 km/h (0 Bft) 98,00 %
18.08.2016 02:10 13,5 C 92 % 1009,4 hPa 0,0 l/m 0,0 km/h (0 Bft) NO 55 0 min 0,000 mm 0,0 UV-I 0 W/m 12,2 C 13,5 C 0,0 km/h (0 Bft) 100,00 %
18.08.2016 02:12 13,5 C 92 % 1009,3 hPa 0,0 l/m 0,0 km/h (0 Bft) NO 55 0 min 0,000 mm 0,0 UV-I 0 W/m 12,2 C 13,5 C 0,0 km/h (0 Bft) 100,00 %
18.08.2016 02:14 13,4 C 92 % 1009,3 hPa 0,0 l/m 0,0 km/h (0 Bft) NO 55 0 min 0,000 mm 0,0 UV-I 0 W/m 12,1 C 13,4 C 0,0 km/h (0 Bft) 97,87 %
18.08.2016 02:16 13,4 C 92 % 1009,3 hPa 0,0 l/m 0,0 km/h (0 Bft) NO 55 0 min 0,000 mm 0,0 UV-I 0 W/m 12,1 C 13,4 C 0,0 km/h (0 Bft) 100,00 %
18.08.2016 02:18 13,4 C 92 % 1009,3 hPa 0,0 l/m 0,0 km/h (0 Bft) NO 55 0 min 0,000 mm 0,0 UV-I 0 W/m 12,1 C 13,4 C 0,0 km/h (0 Bft) 100,00 %
18.08.2016 02:20 13,4 C 92 % 1009,3 hPa 0,0 l/m 0,0 km/h (0 Bft) NO 55 0 min 0,000 mm 0,0 UV-I 0 W/m 12,1 C 13,4 C 0,0 km/h (0 Bft) 100,00 %
18.08.2016 02:22 13,4 C 92 % 1009,3 hPa 0,0 l/m 0,0 km/h (0 Bft) NO 55 0 min 0,000 mm 0,0 UV-I 0 W/m 12,1 C 13,4 C 0,0 km/h (0 Bft) 100,00 %
18.08.2016 02:24 13,4 C 92 % 1009,4 hPa 0,0 l/m 0,0 km/h (0 Bft) NO 55 0 min 0,000 mm 0,0 UV-I 0 W/m 12,1 C 13,4 C 0,0 km/h (0 Bft) 100,00 %
18.08.2016 02:26 13,4 C 92 % 1009,4 hPa 0,0 l/m 0,0 km/h (0 Bft) NO 55 0 min 0,000 mm 0,0 UV-I 0 W/m 12,1 C 13,4 C 0,0 km/h (0 Bft) 100,00 %
18.08.2016 02:28 13,3 C 92 % 1009,4 hPa 0,0 l/m 0,0 km/h (0 Bft) NO 55 0 min 0,000 mm 0,0 UV-I 0 W/m 12,0 C 13,3 C 0,0 km/h (0 Bft) 100,00 %
18.08.2016 02:30 13,3 C 91 % 1009,4 hPa 0,0 l/m 0,0 km/h (0 Bft) NO 55 0 min 0,000 mm 0,0 UV-I 0 W/m 11,9 C 13,3 C 0,0 km/h (0 Bft) 98,11 %
18.08.2016 02:32 13,2 C 92 % 1009,4 hPa 0,0 l/m 0,0 km/h (0 Bft) NO 55 0 min 0,000 mm 0,0 UV-I 0 W/m 11,9 C 13,2 C 0,0 km/h (0 Bft) 97,87 %
18.08.2016 02:34 13,2 C 92 % 1009,4 hPa 0,0 l/m 0,0 km/h (0 Bft) NO 55 0 min 0,000 mm 0,0 UV-I 0 W/m 11,9 C 13,2 C 0,0 km/h (0 Bft) 97,87 %
18.08.2016 02:36 13,2 C 92 % 1009,4 hPa 0,0 l/m 0,0 km/h (0 Bft) NO 55 0 min 0,000 mm 0,0 UV-I 0 W/m 11,9 C 13,2 C 0,0 km/h (0 Bft) 97,87 %
18.08.2016 02:38 13,2 C 92 % 1009,4 hPa 0,0 l/m 0,0 km/h (0 Bft) NO 55 0 min 0,000 mm 0,0 UV-I 0 W/m 11,9 C 13,2 C 0,0 km/h (0 Bft) 97,14 %
18.08.2016 02:40 13,1 C 92 % 1009,3 hPa 0,0 l/m 0,0 km/h (0 Bft) NO 55 0 min 0,000 mm 0,0 UV-I 0 W/m 11,8 C 13,1 C 0,0 km/h (0 Bft) 98,11 %
18.08.2016 02:42 13,1 C 92 % 1009,3 hPa 0,0 l/m 0,0 km/h (0 Bft) NO 55 0 min 0,000 mm 0,0 UV-I 0 W/m 11,8 C 13,1 C 0,0 km/h (0 Bft) 96,00 %
18.08.2016 02:44 13,2 C 93 % 1009,3 hPa 0,0 l/m 0,0 km/h (0 Bft) NO 55 0 min 0,000 mm 0,0 UV-I 0 W/m 12,1 C 13,2 C 0,0 km/h (0 Bft) 97,56 %
18.08.2016 02:46 13,2 C 93 % 1009,3 hPa 0,0 l/m 0,0 km/h (0 Bft) NO 55 0 min 0,000 mm 0,0 UV-I 0 W/m 12,1 C 13,2 C 0,0 km/h (0 Bft) 95,74 %
18.08.2016 02:48 13,2 C 93 % 1009,3 hPa 0,0 l/m 0,0 km/h (0 Bft) NO 55 0 min 0,000 mm 0,0 UV-I 0 W/m 12,1 C 13,2 C 1,6 km/h (1 Bft) 96,23 %
18.08.2016 02:50 13,1 C 92 % 1009,3 hPa 0,0 l/m 1,0 km/h (0 Bft) NO 55 0 min 0,000 mm 0,0 UV-I 0 W/m 11,8 C 13,1 C 3,2 km/h (1 Bft) 97,87 %
18.08.2016 02:52 13,0 C 92 % 1009,2 hPa 0,0 l/m 0,3 km/h (0 Bft) NO 55 0 min 0,000 mm 0,0 UV-I 0 W/m 11,7 C 13,0 C 1,6 km/h (1 Bft) 97,37 %
18.08.2016 02:54 12,9 C 92 % 1009,2 hPa 0,0 l/m 0,4 km/h (0 Bft) NO 55 0 min 0,000 mm 0,0 UV-I 0 W/m 11,6 C 12,9 C 1,6 km/h (1 Bft) 98,00 %
18.08.2016 02:56 12,9 C 93 % 1009,3 hPa 0,0 l/m 0,0 km/h (0 Bft) NO 55 0 min 0,000 mm 0,0 UV-I 0 W/m 11,8 C 12,9 C 0,0 km/h (0 Bft) 97,44 %
18.08.2016 02:58 12,9 C 93 % 1009,2 hPa 0,0 l/m 0,0 km/h (0 Bft) NO 55 0 min 0,000 mm 0,0 UV-I 0 W/m 11,8 C 12,9 C 0,0 km/h (0 Bft) 96,00 %
18.08.2016 03:00 12,9 C 93 % 1009,3 hPa 0,0 l/m 0,8 km/h (0 Bft) NO 55 0 min 0,000 mm 0,0 UV-I 0 W/m 11,8 C 12,9 C 1,6 km/h (1 Bft) 98,08 %
18.08.2016 03:02 12,9 C 93 % 1009,3 hPa 0,0 l/m 1,3 km/h (1 Bft) NO 55 0 min 0,000 mm 0,0 UV-I 0 W/m 11,8 C 12,9 C 3,2 km/h (1 Bft) 95,83 %
18.08.2016 03:04 12,9 C 93 % 1009,3 hPa 0,0 l/m 0,1 km/h (0 Bft) NO 55 0 min 0,000 mm 0,0 UV-I 0 W/m 11,8 C 12,9 C 1,6 km/h (1 Bft) 100,00 %
18.08.2016 03:06 12,9 C 93 % 1009,3 hPa 0,0 l/m 0,0 km/h (0 Bft) NO 55 0 min 0,000 mm 0,0 UV-I 0 W/m 11,8 C 12,9 C 1,6 km/h (1 Bft) 98,00 %
18.08.2016 03:08 12,9 C 93 % 1009,3 hPa 0,0 l/m 0,0 km/h (0 Bft) NO 55 0 min 0,000 mm 0,0 UV-I 0 W/m 11,8 C 12,9 C 0,0 km/h (0 Bft) 100,00 %
18.08.2016 03:10 12,9 C 93 % 1009,3 hPa 0,0 l/m 1,1 km/h (1 Bft) NO 55 0 min 0,000 mm 0,0 UV-I 0 W/m 11,8 C 12,9 C 3,2 km/h (1 Bft) 100,00 %
18.08.2016 03:12 12,9 C 93 % 1009,3 hPa 0,0 l/m 2,0 km/h (1 Bft) NO 55 0 min 0,000 mm 0,0 UV-I 0 W/m 11,8 C 12,9 C 3,2 km/h (1 Bft) 97,73 %
18.08.2016 03:14 12,8 C 93 % 1009,3 hPa 0,0 l/m 0,4 km/h (0 Bft) NO 55 0 min 0,000 mm 0,0 UV-I 0 W/m 11,7 C 12,8 C 1,6 km/h (1 Bft) 100,00 %
18.08.2016 03:16 12,7 C 93 % 1009,3 hPa 0,0 l/m 0,7 km/h (0 Bft) NO 55 0 min 0,000 mm 0,0 UV-I 0 W/m 11,6 C 12,7 C 1,6 km/h (1 Bft) 97,56 %
18.08.2016 03:18 12,7 C 93 % 1009,3 hPa 0,0 l/m 0,0 km/h (0 Bft) NO 55 0 min 0,000 mm 0,0 UV-I 0 W/m 11,6 C 12,7 C 1,6 km/h (1 Bft) 100,00 %
18.08.2016 03:20 12,7 C 93 % 1009,3 hPa 0,0 l/m 0,0 km/h (0 Bft) NO 55 0 min 0,000 mm 0,0 UV-I 0 W/m 11,6 C 12,7 C 1,6 km/h (1 Bft) 98,00 %
18.08.2016 03:22 12,7 C 93 % 1009,3 hPa 0,0 l/m 0,0 km/h (0 Bft) NO 55 0 min 0,000 mm 0,0 UV-I 0 W/m 11,6 C 12,7 C 0,0 km/h (0 Bft) 100,00 %
18.08.2016 03:24 12,7 C 93 % 1009,3 hPa 0,0 l/m 0,0 km/h (0 Bft) NO 55 0 min 0,000 mm 0,0 UV-I 0 W/m 11,6 C 12,7 C 0,0 km/h (0 Bft) 100,00 %
18.08.2016 03:26 12,7 C 94 % 1009,3 hPa 0,0 l/m 0,0 km/h (0 Bft) NO 55 0 min 0,000 mm 0,0 UV-I 0 W/m 11,8 C 12,7 C 0,0 km/h (0 Bft) 100,00 %
18.08.2016 03:28 12,7 C 94 % 1009,3 hPa 0,0 l/m 0,1 km/h (0 Bft) NO 55 0 min 0,000 mm 0,0 UV-I 0 W/m 11,8 C 12,7 C 1,6 km/h (1 Bft) 100,00 %
18.08.2016 03:30 12,8 C 94 % 1009,3 hPa 0,0 l/m 2,2 km/h (1 Bft) NO 55 0 min 0,000 mm 0,0 UV-I 0 W/m 11,9 C 12,8 C 3,2 km/h (1 Bft) 100,00 %
18.08.2016 03:32 12,8 C 93 % 1009,3 hPa 0,0 l/m 3,0 km/h (1 Bft) O-SO 118 0 min 0,000 mm 0,0 UV-I 0 W/m 11,7 C 12,8 C 4,8 km/h (1 Bft) 100,00 %
18.08.2016 03:34 12,7 C 93 % 1009,3 hPa 0,0 l/m 3,6 km/h (1 Bft) SO 141 0 min 0,000 mm 0,0 UV-I 0 W/m 11,6 C 12,7 C 4,8 km/h (1 Bft) 100,00 %
18.08.2016 03:36 12,7 C 93 % 1009,3 hPa 0,0 l/m 3,5 km/h (1 Bft) SO 144 0 min 0,000 mm 0,0 UV-I 0 W/m 11,6 C 12,7 C 4,8 km/h (1 Bft) 100,00 %
18.08.2016 03:38 12,8 C 94 % 1009,3 hPa 0,0 l/m 2,8 km/h (1 Bft) SO 144 0 min 0,000 mm 0,0 UV-I 0 W/m 11,9 C 12,8 C 3,2 km/h (1 Bft) 100,00 %
18.08.2016 03:40 12,8 C 93 % 1009,4 hPa 0,0 l/m 0,7 km/h (0 Bft) SO 144 0 min 0,000 mm 0,0 UV-I 0 W/m 11,7 C 12,8 C 3,2 km/h (1 Bft) 100,00 %
18.08.2016 03:42 12,8 C 93 % 1009,3 hPa 0,0 l/m 0,7 km/h (0 Bft) SO 144 0 min 0,000 mm 0,0 UV-I 0 W/m 11,7 C 12,8 C 1,6 km/h (1 Bft) 100,00 %
18.08.2016 03:44 12,8 C 94 % 1009,3 hPa 0,0 l/m 0,6 km/h (0 Bft) SO 144 0 min 0,000 mm 0,0 UV-I 0 W/m 11,9 C 12,8 C 1,6 km/h (1 Bft) 100,00 %
18.08.2016 03:46 12,8 C 93 % 1009,4 hPa 0,0 l/m 0,0 km/h (0 Bft) SO 144 0 min 0,000 mm 0,0 UV-I 0 W/m 11,7 C 12,8 C 1,6 km/h (1 Bft) 100,00 %
18.08.2016 03:48 12,8 C 93 % 1009,3 hPa 0,0 l/m 2,1 km/h (1 Bft) SO 144 0 min 0,000 mm 0,0 UV-I 0 W/m 11,7 C 12,8 C 4,8 km/h (1 Bft) 100,00 %
18.08.2016 03:50 12,8 C 93 % 1009,3 hPa 0,0 l/m 2,4 km/h (1 Bft) SO 144 0 min 0,000 mm 0,0 UV-I 0 W/m 11,7 C 12,8 C 4,8 km/h (1 Bft) 100,00 %
18.08.2016 03:52 12,8 C 93 % 1009,3 hPa 0,0 l/m 0,8 km/h (0 Bft) SO 144 0 min 0,000 mm 0,0 UV-I 0 W/m 11,7 C 12,8 C 1,6 km/h (1 Bft) 100,00 %
18.08.2016 03:54 12,8 C 93 % 1009,3 hPa 0,0 l/m 0,4 km/h (0 Bft) SO 144 0 min 0,000 mm 0,0 UV-I 0 W/m 11,7 C 12,8 C 1,6 km/h (1 Bft) 98,11 %
18.08.2016 03:56 12,8 C 93 % 1009,2 hPa 0,0 l/m 0,3 km/h (0 Bft) SO 144 0 min 0,000 mm 0,0 UV-I 0 W/m 11,7 C 12,8 C 1,6 km/h (1 Bft) 100,00 %
18.08.2016 03:58 12,7 C 93 % 1009,2 hPa 0,0 l/m 0,5 km/h (0 Bft) SO 144 0 min 0,000 mm 0,0 UV-I 0 W/m 11,6 C 12,7 C 3,2 km/h (1 Bft) 100,00 %
18.08.2016 04:00 12,7 C 93 % 1009,2 hPa 0,0 l/m 0,3 km/h (0 Bft) SO 144 0 min 0,000 mm 0,0 UV-I 0 W/m 11,6 C 12,7 C 1,6 km/h (1 Bft) 100,00 %
18.08.2016 04:02 12,8 C 94 % 1009,2 hPa 0,0 l/m 0,1 km/h (0 Bft) SO 144 0 min 0,000 mm 0,0 UV-I 0 W/m 11,9 C 12,8 C 1,6 km/h (1 Bft) 96,77 %
18.08.2016 04:04 12,8 C 94 % 1009,2 hPa 0,0 l/m 0,0 km/h (0 Bft) SO 144 0 min 0,000 mm 0,0 UV-I 0 W/m 11,9 C 12,8 C 1,6 km/h (1 Bft) 100,00 %
18.08.2016 04:06 12,8 C 93 % 1009,2 hPa 0,0 l/m 0,0 km/h (0 Bft) SO 144 0 min 0,000 mm 0,0 UV-I 0 W/m 11,7 C 12,8 C 1,6 km/h (1 Bft) 100,00 %
18.08.2016 04:08 12,7 C 93 % 1009,1 hPa 0,0 l/m 1,2 km/h (1 Bft) SO 144 0 min 0,000 mm 0,0 UV-I 0 W/m 11,6 C 12,7 C 3,2 km/h (1 Bft) 100,00 %
18.08.2016 04:10 12,7 C 93 % 1009,1 hPa 0,0 l/m 1,2 km/h (1 Bft) SO 144 0 min 0,000 mm 0,0 UV-I 0 W/m 11,6 C 12,7 C 1,6 km/h (1 Bft) 100,00 %
18.08.2016 04:12 12,7 C 93 % 1009,1 hPa 0,0 l/m 1,2 km/h (1 Bft) SO 144 0 min 0,000 mm 0,0 UV-I 0 W/m 11,6 C 12,7 C 3,2 km/h (1 Bft) 100,00 %
18.08.2016 04:14 12,6 C 93 % 1009,1 hPa 0,0 l/m 0,1 km/h (0 Bft) SO 144 0 min 0,000 mm 0,0 UV-I 0 W/m 11,5 C 12,6 C 1,6 km/h (1 Bft) 98,00 %
18.08.2016 04:16 12,6 C 93 % 1009,1 hPa 0,0 l/m 1,0 km/h (0 Bft) SO 144 0 min 0,000 mm 0,0 UV-I 0 W/m 11,5 C 12,6 C 1,6 km/h (1 Bft) 100,00 %
18.08.2016 04:18 12,6 C 93 % 1009,1 hPa 0,0 l/m 0,1 km/h (0 Bft) SO 144 0 min 0,000 mm 0,0 UV-I 0 W/m 11,5 C 12,6 C 1,6 km/h (1 Bft) 100,00 %
18.08.2016 04:20 12,6 C 93 % 1009,1 hPa 0,0 l/m 0,0 km/h (0 Bft) SO 144 0 min 0,000 mm 0,0 UV-I 0 W/m 11,5 C 12,6 C 0,0 km/h (0 Bft) 100,00 %
18.08.2016 04:22 12,5 C 93 % 1009,1 hPa 0,0 l/m 0,0 km/h (0 Bft) SO 144 0 min 0,000 mm 0,0 UV-I 0 W/m 11,4 C 12,5 C 0,0 km/h (0 Bft) 100,00 %
18.08.2016 04:24 12,4 C 93 % 1009,0 hPa 0,0 l/m 0,5 km/h (0 Bft) SO 144 0 min 0,000 mm 0,0 UV-I 0 W/m 11,3 C 12,4 C 1,6 km/h (1 Bft) 100,00 %
18.08.2016 04:26 12,4 C 93 % 1009,1 hPa 0,0 l/m 1,9 km/h (1 Bft) SO 144 0 min 0,000 mm 0,0 UV-I 0 W/m 11,3 C 12,4 C 3,2 km/h (1 Bft) 100,00 %
18.08.2016 04:28 12,4 C 93 % 1009,1 hPa 0,0 l/m 2,9 km/h (1 Bft) SO 144 0 min 0,000 mm 0,0 UV-I 0 W/m 11,3 C 12,4 C 3,2 km/h (1 Bft) 97,87 %
18.08.2016 04:30 12,3 C 93 % 1009,1 hPa 0,0 l/m 2,1 km/h (1 Bft) SO 144 0 min 0,000 mm 0,0 UV-I 0 W/m 11,2 C 12,3 C 3,2 km/h (1 Bft) 98,00 %
18.08.2016 04:32 12,3 C 93 % 1009,1 hPa 0,0 l/m 2,2 km/h (1 Bft) SO 144 0 min 0,000 mm 0,0 UV-I 0 W/m 11,2 C 12,3 C 3,2 km/h (1 Bft) 97,37 %
18.08.2016 04:34 12,2 C 94 % 1009,1 hPa 0,0 l/m 2,3 km/h (1 Bft) SO 144 0 min 0,000 mm 0,0 UV-I 0 W/m 11,3 C 12,2 C 3,2 km/h (1 Bft) 98,00 %
18.08.2016 04:36 12,1 C 94 % 1009,1 hPa 0,0 l/m 2,1 km/h (1 Bft) SO 144 0 min 0,000 mm 0,0 UV-I 0 W/m 11,2 C 12,1 C 3,2 km/h (1 Bft) 97,87 %
18.08.2016 04:38 12,1 C 94 % 1009,1 hPa 0,0 l/m 1,5 km/h (1 Bft) SO 144 0 min 0,000 mm 0,0 UV-I 0 W/m 11,2 C 12,1 C 3,2 km/h (1 Bft) 94,00 %
18.08.2016 04:40 12,1 C 94 % 1009,1 hPa 0,0 l/m 1,3 km/h (1 Bft) SO 144 0 min 0,000 mm 0,0 UV-I 0 W/m 11,2 C 12,1 C 1,6 km/h (1 Bft) 96,00 %
18.08.2016 04:42 12,2 C 95 % 1009,1 hPa 0,0 l/m 0,6 km/h (0 Bft) SO 144 0 min 0,000 mm 0,0 UV-I 0 W/m 11,4 C 12,2 C 1,6 km/h (1 Bft) 97,37 %
18.08.2016 04:44 12,2 C 94 % 1009,1 hPa 0,0 l/m 1,7 km/h (1 Bft) SO 144 0 min 0,000 mm 0,0 UV-I 0 W/m 11,3 C 12,2 C 3,2 km/h (1 Bft) 96,00 %
18.08.2016 04:46 12,2 C 94 % 1009,1 hPa 0,0 l/m 1,4 km/h (1 Bft) SO 144 0 min 0,000 mm 0,0 UV-I 0 W/m 11,3 C 12,2 C 3,2 km/h (1 Bft) 97,87 %
18.08.2016 04:48 12,2 C 94 % 1009,0 hPa 0,0 l/m 0,1 km/h (0 Bft) SO 144 0 min 0,000 mm 0,0 UV-I 0 W/m 11,3 C 12,2 C 1,6 km/h (1 Bft) 97,87 %
18.08.2016 04:50 12,1 C 94 % 1009,0 hPa 0,0 l/m 0,0 km/h (0 Bft) SO 144 0 min 0,000 mm 0,0 UV-I 0 W/m 11,2 C 12,1 C 1,6 km/h (1 Bft) 97,87 %
18.08.2016 04:52 12,2 C 94 % 1009,0 hPa 0,0 l/m 0,2 km/h (0 Bft) SO 144 0 min 0,000 mm 0,0 UV-I 0 W/m 11,3 C 12,2 C 1,6 km/h (1 Bft) 97,87 %
18.08.2016 04:54 12,2 C 94 % 1009,0 hPa 0,0 l/m 2,5 km/h (1 Bft) SO 144 0 min 0,000 mm 0,0 UV-I 0 W/m 11,3 C 12,2 C 4,8 km/h (1 Bft) 98,00 %
18.08.2016 04:56 12,2 C 94 % 1009,1 hPa 0,0 l/m 4,0 km/h (1 Bft) SO 146 0 min 0,000 mm 0,0 UV-I 0 W/m 11,3 C 12,2 C 6,4 km/h (2 Bft) 97,44 %
18.08.2016 04:58 12,2 C 94 % 1009,0 hPa 0,0 l/m 1,9 km/h (1 Bft) SO 145 0 min 0,000 mm 0,0 UV-I 0 W/m 11,3 C 12,2 C 3,2 km/h (1 Bft) 98,08 %
18.08.2016 05:00 12,2 C 94 % 1009,0 hPa 0,0 l/m 1,9 km/h (1 Bft) SO 146 0 min 0,000 mm 0,0 UV-I 0 W/m 11,3 C 12,2 C 4,8 km/h (1 Bft) 96,08 %
18.08.2016 05:02 12,2 C 94 % 1009,0 hPa 0,0 l/m 0,6 km/h (0 Bft) SO 146 0 min 0,000 mm 0,0 UV-I 0 W/m 11,3 C 12,2 C 1,6 km/h (1 Bft) 97,83 %
18.08.2016 05:04 12,0 C 94 % 1009,0 hPa 0,0 l/m 0,0 km/h (0 Bft) SO 145 0 min 0,000 mm 0,0 UV-I 0 W/m 11,1 C 12,0 C 0,0 km/h (0 Bft) 100,00 %
18.08.2016 05:06 12,0 C 94 % 1009,0 hPa 0,0 l/m 1,2 km/h (1 Bft) SO 145 0 min 0,000 mm 0,0 UV-I 0 W/m 11,1 C 12,0 C 1,6 km/h (1 Bft) 100,00 %
18.08.2016 05:08 12,1 C 94 % 1009,0 hPa 0,0 l/m 0,6 km/h (0 Bft) SO 146 0 min 0,000 mm 0,0 UV-I 0 W/m 11,2 C 12,1 C 1,6 km/h (1 Bft) 98,11 %
18.08.2016 05:10 12,0 C 94 % 1009,0 hPa 0,0 l/m 0,0 km/h (0 Bft) SO 145 0 min 0,000 mm 0,0 UV-I 0 W/m 11,1 C 12,0 C 1,6 km/h (1 Bft) 100,00 %
18.08.2016 05:12 11,9 C 94 % 1009,0 hPa 0,0 l/m 0,2 km/h (0 Bft) SO 145 0 min 0,000 mm 0,0 UV-I 0 W/m 11,0 C 11,9 C 1,6 km/h (1 Bft) 96,00 %
18.08.2016 05:14 11,9 C 94 % 1009,0 hPa 0,0 l/m 0,1 km/h (0 Bft) SO 145 0 min 0,000 mm 0,0 UV-I 0 W/m 11,0 C 11,9 C 1,6 km/h (1 Bft) 100,00 %
18.08.2016 05:16 11,9 C 94 % 1009,0 hPa 0,0 l/m 0,0 km/h (0 Bft) SO 145 0 min 0,000 mm 0,0 UV-I 0 W/m 11,0 C 11,9 C 0,0 km/h (0 Bft) 100,00 %
18.08.2016 05:18 11,9 C 94 % 1009,0 hPa 0,0 l/m 0,0 km/h (0 Bft) SO 145 0 min 0,000 mm 0,0 UV-I 0 W/m 11,0 C 11,9 C 0,0 km/h (0 Bft) 100,00 %
18.08.2016 05:20 11,9 C 95 % 1009,0 hPa 0,0 l/m 0,0 km/h (0 Bft) SO 146 0 min 0,000 mm 0,0 UV-I 0 W/m 11,1 C 11,9 C 0,0 km/h (0 Bft) 100,00 %
18.08.2016 05:22 11,9 C 95 % 1009,0 hPa 0,0 l/m 0,0 km/h (0 Bft) SO 145 0 min 0,000 mm 0,0 UV-I 0 W/m 11,1 C 11,9 C 0,0 km/h (0 Bft) 100,00 %
18.08.2016 05:24 11,9 C 94 % 1009,0 hPa 0,0 l/m 0,0 km/h (0 Bft) SO 145 0 min 0,000 mm 0,0 UV-I 0 W/m 11,0 C 11,9 C 0,0 km/h (0 Bft) 100,00 %
18.08.2016 05:26 11,9 C 94 % 1009,0 hPa 0,0 l/m 0,2 km/h (0 Bft) SO 145 0 min 0,000 mm 0,0 UV-I 0 W/m 11,0 C 11,9 C 1,6 km/h (1 Bft) 100,00 %
18.08.2016 05:28 11,9 C 95 % 1009,0 hPa 0,0 l/m 0,7 km/h (0 Bft) SO 146 0 min 0,000 mm 0,0 UV-I 0 W/m 11,1 C 11,9 C 1,6 km/h (1 Bft) 100,00 %
18.08.2016 05:30 11,8 C 94 % 1009,0 hPa 0,0 l/m 0,0 km/h (0 Bft) SO 145 0 min 0,000 mm 0,0 UV-I 0 W/m 10,9 C 11,8 C 0,0 km/h (0 Bft) 100,00 %
18.08.2016 05:32 11,8 C 94 % 1009,1 hPa 0,0 l/m 0,1 km/h (0 Bft) SO 145 0 min 0,000 mm 0,0 UV-I 0 W/m 10,9 C 11,8 C 1,6 km/h (1 Bft) 98,00 %
18.08.2016 05:34 11,8 C 95 % 1009,1 hPa 0,0 l/m 0,8 km/h (0 Bft) SO 146 0 min 0,000 mm 0,0 UV-I 0 W/m 11,0 C 11,8 C 1,6 km/h (1 Bft) 100,00 %
18.08.2016 05:36 11,8 C 95 % 1009,1 hPa 0,0 l/m 1,2 km/h (1 Bft) SO 145 0 min 0,000 mm 0,0 UV-I 0 W/m 11,0 C 11,8 C 1,6 km/h (1 Bft) 100,00 %
18.08.2016 05:38 11,8 C 94 % 1009,1 hPa 0,0 l/m 1,2 km/h (1 Bft) SO 145 0 min 0,000 mm 0,0 UV-I 0 W/m 10,9 C 11,8 C 1,6 km/h (1 Bft) 100,00 %
18.08.2016 05:40 11,7 C 94 % 1009,2 hPa 0,0 l/m 0,3 km/h (0 Bft) SO 145 0 min 0,000 mm 0,0 UV-I 0 W/m 10,8 C 11,7 C 1,6 km/h (1 Bft) 100,00 %
18.08.2016 05:42 11,7 C 94 % 1009,2 hPa 0,0 l/m 0,0 km/h (0 Bft) SO 145 0 min 0,000 mm 0,0 UV-I 0 W/m 10,8 C 11,7 C 0,0 km/h (0 Bft) 100,00 %
18.08.2016 05:44 11,8 C 95 % 1009,2 hPa 0,0 l/m 0,0 km/h (0 Bft) SO 145 0 min 0,000 mm 0,0 UV-I 0 W/m 11,0 C 11,8 C 0,0 km/h (0 Bft) 96,00 %
18.08.2016 05:46 11,8 C 95 % 1009,2 hPa 0,0 l/m 0,0 km/h (0 Bft) SO 145 0 min 0,000 mm 0,0 UV-I 0 W/m 11,0 C 11,8 C 0,0 km/h (0 Bft) 100,00 %
18.08.2016 05:48 11,8 C 95 % 1009,2 hPa 0,0 l/m 0,0 km/h (0 Bft) SO 145 0 min 0,000 mm 0,0 UV-I 0 W/m 11,0 C 11,8 C 0,0 km/h (0 Bft) 100,00 %
18.08.2016 05:50 11,8 C 94 % 1009,2 hPa 0,0 l/m 0,0 km/h (0 Bft) SO 145 0 min 0,000 mm 0,0 UV-I 0 W/m 10,9 C 11,8 C 0,0 km/h (0 Bft) 100,00 %
18.08.2016 05:52 11,8 C 95 % 1009,2 hPa 0,0 l/m 0,7 km/h (0 Bft) SO 145 0 min 0,000 mm 0,0 UV-I 0 W/m 11,0 C 11,8 C 1,6 km/h (1 Bft) 97,73 %
18.08.2016 05:54 11,7 C 94 % 1009,2 hPa 0,0 l/m 1,2 km/h (1 Bft) SO 145 0 min 0,000 mm 0,0 UV-I 0 W/m 10,8 C 11,7 C 1,6 km/h (1 Bft) 100,00 %
18.08.2016 05:56 11,7 C 95 % 1009,2 hPa 0,0 l/m 0,1 km/h (0 Bft) SO 145 0 min 0,000 mm 0,0 UV-I 0 W/m 10,9 C 11,7 C 1,6 km/h (1 Bft) 100,00 %
18.08.2016 05:58 11,7 C 94 % 1009,3 hPa 0,0 l/m 0,0 km/h (0 Bft) SO 145 0 min 0,000 mm 0,0 UV-I 4 W/m 10,8 C 11,7 C 0,0 km/h (0 Bft) 100,00 %
18.08.2016 06:00 11,6 C 95 % 1009,3 hPa 0,0 l/m 0,5 km/h (0 Bft) SO 145 0 min 0,000 mm 0,0 UV-I 5 W/m 10,8 C 11,6 C 3,2 km/h (1 Bft) 100,00 %
18.08.2016 06:02 11,6 C 94 % 1009,3 hPa 0,0 l/m 0,1 km/h (0 Bft) SO 145 0 min 0,000 mm 0,0 UV-I 5 W/m 10,7 C 11,6 C 1,6 km/h (1 Bft) 100,00 %
18.08.2016 06:04 11,6 C 95 % 1009,3 hPa 0,0 l/m 0,0 km/h (0 Bft) SO 145 0 min 0,000 mm 0,0 UV-I 7 W/m 10,8 C 11,6 C 0,0 km/h (0 Bft) 98,11 %
18.08.2016 06:06 11,6 C 95 % 1009,2 hPa 0,0 l/m 0,0 km/h (0 Bft) SO 146 0 min 0,000 mm 0,0 UV-I 7 W/m 10,8 C 11,6 C 0,0 km/h (0 Bft) 100,00 %
18.08.2016 06:08 11,6 C 95 % 1009,2 hPa 0,0 l/m 0,0 km/h (0 Bft) SO 145 0 min 0,000 mm 0,0 UV-I 9 W/m 10,8 C 11,6 C 0,0 km/h (0 Bft) 100,00 %
18.08.2016 06:10 11,6 C 95 % 1009,2 hPa 0,0 l/m 0,0 km/h (0 Bft) SO 146 0 min 0,000 mm 0,0 UV-I 10 W/m 10,8 C 11,6 C 0,0 km/h (0 Bft) 100,00 %
18.08.2016 06:12 11,6 C 95 % 1009,2 hPa 0,0 l/m 0,0 km/h (0 Bft) SO 146 0 min 0,000 mm 0,0 UV-I 12 W/m 10,8 C 11,6 C 0,0 km/h (0 Bft) 100,00 %
18.08.2016 06:14 11,6 C 95 % 1009,2 hPa 0,0 l/m 0,0 km/h (0 Bft) SO 145 2 min 0,000 mm 0,0 UV-I 12 W/m 10,8 C 11,6 C 0,0 km/h (0 Bft) 100,00 %
18.08.2016 06:16 11,6 C 95 % 1009,2 hPa 0,0 l/m 0,0 km/h (0 Bft) SO 145 2 min 0,000 mm 0,0 UV-I 14 W/m 10,8 C 11,6 C 1,6 km/h (1 Bft) 95,74 %
18.08.2016 06:18 11,6 C 95 % 1009,2 hPa 0,0 l/m 0,3 km/h (0 Bft) SO 145 2 min 0,000 mm 0,0 UV-I 17 W/m 10,8 C 11,6 C 1,6 km/h (1 Bft) 100,00 %
18.08.2016 06:20 11,6 C 95 % 1009,3 hPa 0,0 l/m 0,8 km/h (0 Bft) SO 145 2 min 0,000 mm 0,0 UV-I 19 W/m 10,8 C 11,6 C 1,6 km/h (1 Bft) 100,00 %
18.08.2016 06:22 11,6 C 95 % 1009,3 hPa 0,0 l/m 0,1 km/h (0 Bft) SO 145 0 min 0,000 mm 0,0 UV-I 21 W/m 10,8 C 11,6 C 1,6 km/h (1 Bft) 97,87 %
18.08.2016 06:24 11,4 C 94 % 1009,2 hPa 0,0 l/m 0,5 km/h (0 Bft) SO 146 0 min 0,000 mm 0,0 UV-I 23 W/m 10,5 C 11,4 C 3,2 km/h (1 Bft) 100,00 %
18.08.2016 06:26 11,3 C 94 % 1009,3 hPa 0,0 l/m 1,1 km/h (1 Bft) SO 145 0 min 0,000 mm 0,0 UV-I 26 W/m 10,4 C 11,3 C 3,2 km/h (1 Bft) 100,00 %
18.08.2016 06:28 11,3 C 95 % 1009,3 hPa 0,0 l/m 0,3 km/h (0 Bft) SO 145 0 min 0,000 mm 0,0 UV-I 28 W/m 10,5 C 11,3 C 1,6 km/h (1 Bft) 95,74 %
18.08.2016 06:30 11,4 C 95 % 1009,3 hPa 0,0 l/m 1,5 km/h (1 Bft) SO 145 0 min 0,000 mm 0,0 UV-I 31 W/m 10,6 C 11,4 C 3,2 km/h (1 Bft) 97,87 %
18.08.2016 06:32 11,4 C 95 % 1009,4 hPa 0,0 l/m 3,2 km/h (1 Bft) SO 145 0 min 0,000 mm 0,0 UV-I 33 W/m 10,6 C 11,4 C 4,8 km/h (1 Bft) 94,74 %
18.08.2016 06:34 11,4 C 95 % 1009,4 hPa 0,0 l/m 3,2 km/h (1 Bft) SO 145 0 min 0,000 mm 0,0 UV-I 37 W/m 10,6 C 11,4 C 4,8 km/h (1 Bft) 98,00 %
18.08.2016 06:36 11,4 C 95 % 1009,4 hPa 0,0 l/m 2,5 km/h (1 Bft) SO 146 0 min 0,000 mm 0,0 UV-I 40 W/m 10,6 C 11,4 C 4,8 km/h (1 Bft) 97,87 %
18.08.2016 06:38 11,6 C 96 % 1009,3 hPa 0,0 l/m 0,2 km/h (0 Bft) SO 145 0 min 0,000 mm 0,0 UV-I 43 W/m 11,0 C 11,6 C 1,6 km/h (1 Bft) 96,00 %
18.08.2016 06:40 11,7 C 96 % 1009,3 hPa 0,0 l/m 0,0 km/h (0 Bft) SO 146 0 min 0,000 mm 0,0 UV-I 46 W/m 11,1 C 11,7 C 0,0 km/h (0 Bft) 97,37 %
18.08.2016 06:42 11,7 C 96 % 1009,3 hPa 0,0 l/m 0,3 km/h (0 Bft) SO 146 0 min 0,000 mm 0,0 UV-I 49 W/m 11,1 C 11,7 C 3,2 km/h (1 Bft) 96,43 %
18.08.2016 06:44 11,8 C 95 % 1009,4 hPa 0,0 l/m 1,4 km/h (1 Bft) SO 145 0 min 0,000 mm 0,0 UV-I 53 W/m 11,0 C 11,8 C 3,2 km/h (1 Bft) 93,62 %
18.08.2016 06:46 11,8 C 95 % 1009,3 hPa 0,0 l/m 0,2 km/h (0 Bft) SO 146 0 min 0,000 mm 0,0 UV-I 55 W/m 11,0 C 11,8 C 1,6 km/h (1 Bft) 100,00 %
18.08.2016 06:48 11,8 C 95 % 1009,3 hPa 0,0 l/m 0,4 km/h (0 Bft) SO 145 0 min 0,000 mm 0,0 UV-I 59 W/m 11,0 C 11,8 C 1,6 km/h (1 Bft) 96,88 %
18.08.2016 06:50 11,9 C 95 % 1009,3 hPa 0,0 l/m 0,0 km/h (0 Bft) SO 145 0 min 0,000 mm 0,0 UV-I 62 W/m 11,1 C 11,9 C 0,0 km/h (0 Bft) 98,00 %
18.08.2016 06:52 12,0 C 95 % 1009,3 hPa 0,0 l/m 0,0 km/h (0 Bft) SO 146 0 min 0,000 mm 0,0 UV-I 65 W/m 11,2 C 12,0 C 0,0 km/h (0 Bft) 97,50 %
18.08.2016 06:54 12,1 C 95 % 1009,3 hPa 0,0 l/m 0,1 km/h (0 Bft) SO 146 0 min 0,000 mm 0,0 UV-I 68 W/m 11,3 C 12,1 C 1,6 km/h (1 Bft) 98,00 %
18.08.2016 06:56 12,2 C 95 % 1009,3 hPa 0,0 l/m 0,0 km/h (0 Bft) SO 146 0 min 0,000 mm 0,0 UV-I 71 W/m 11,4 C 12,2 C 0,0 km/h (0 Bft) 97,96 %
18.08.2016 06:58 12,3 C 96 % 1009,3 hPa 0,0 l/m 0,2 km/h (0 Bft) SO 146 0 min 0,000 mm 0,0 UV-I 74 W/m 11,7 C 12,3 C 1,6 km/h (1 Bft) 97,92 %
18.08.2016 07:00 12,4 C 96 % 1009,3 hPa 0,0 l/m 1,4 km/h (1 Bft) SO 146 0 min 0,025 mm 0,0 UV-I 77 W/m 11,8 C 12,4 C 3,2 km/h (1 Bft) 97,56 %
18.08.2016 07:02 12,5 C 95 % 1009,3 hPa 0,0 l/m 1,2 km/h (1 Bft) SO 145 0 min 0,000 mm 0,0 UV-I 78 W/m 11,7 C 12,5 C 3,2 km/h (1 Bft) 97,87 %
18.08.2016 07:04 12,6 C 95 % 1009,3 hPa 0,0 l/m 1,2 km/h (1 Bft) SO 146 0 min 0,000 mm 0,0 UV-I 80 W/m 11,8 C 12,6 C 3,2 km/h (1 Bft) 100,00 %
18.08.2016 07:06 12,6 C 95 % 1009,3 hPa 0,0 l/m 2,2 km/h (1 Bft) SO 146 2 min 0,000 mm 0,0 UV-I 98 W/m 11,8 C 12,6 C 3,2 km/h (1 Bft) 100,00 %
18.08.2016 07:08 12,7 C 95 % 1009,3 hPa 0,0 l/m 1,5 km/h (1 Bft) SO 146 2 min 0,000 mm 0,0 UV-I 111 W/m 11,9 C 12,7 C 1,6 km/h (1 Bft) 94,29 %
18.08.2016 07:10 12,8 C 95 % 1009,4 hPa 0,0 l/m 2,2 km/h (1 Bft) SO 146 2 min 0,000 mm 0,0 UV-I 114 W/m 12,0 C 12,8 C 3,2 km/h (1 Bft) 100,00 %
18.08.2016 07:12 12,8 C 95 % 1009,4 hPa 0,0 l/m 1,4 km/h (1 Bft) SO 146 2 min 0,000 mm 0,0 UV-I 121 W/m 12,0 C 12,8 C 3,2 km/h (1 Bft) 100,00 %
18.08.2016 07:14 12,9 C 95 % 1009,4 hPa 0,0 l/m 1,8 km/h (1 Bft) SO 146 2 min 0,000 mm 0,0 UV-I 127 W/m 12,1 C 12,9 C 3,2 km/h (1 Bft) 97,87 %
18.08.2016 07:16 12,9 C 95 % 1009,4 hPa 0,0 l/m 0,3 km/h (0 Bft) SO 146 2 min 0,000 mm 0,0 UV-I 133 W/m 12,1 C 12,9 C 3,2 km/h (1 Bft) 97,87 %
18.08.2016 07:18 13,0 C 95 % 1009,4 hPa 0,0 l/m 1,3 km/h (1 Bft) SO 146 2 min 0,000 mm 0,0 UV-I 139 W/m 12,2 C 13,0 C 3,2 km/h (1 Bft) 100,00 %
18.08.2016 07:20 13,1 C 94 % 1009,4 hPa 0,0 l/m 2,8 km/h (1 Bft) SO 146 2 min 0,000 mm 0,0 UV-I 142 W/m 12,2 C 13,1 C 4,8 km/h (1 Bft) 100,00 %
18.08.2016 07:22 13,1 C 94 % 1009,5 hPa 0,0 l/m 3,2 km/h (1 Bft) S-SO 148 2 min 0,000 mm 0,0 UV-I 145 W/m 12,2 C 13,1 C 4,8 km/h (1 Bft) 97,87 %
18.08.2016 07:24 13,1 C 94 % 1009,5 hPa 0,0 l/m 4,7 km/h (1 Bft) S-SO 165 2 min 0,000 mm 0,0 UV-I 148 W/m 12,2 C 13,1 C 8,0 km/h (2 Bft) 100,00 %
18.08.2016 07:26 13,1 C 94 % 1009,5 hPa 0,0 l/m 4,8 km/h (1 Bft) S 177 2 min 0,000 mm 0,0 UV-I 154 W/m 12,2 C 13,1 C 6,4 km/h (2 Bft) 100,00 %
18.08.2016 07:28 13,2 C 95 % 1009,5 hPa 0,0 l/m 4,1 km/h (1 Bft) S 191 2 min 0,000 mm 0,0 UV-I 155 W/m 12,4 C 13,2 C 6,4 km/h (2 Bft) 100,00 %
18.08.2016 07:30 13,2 C 94 % 1009,5 hPa 0,0 l/m 1,6 km/h (1 Bft) S 189 2 min 0,000 mm 0,0 UV-I 151 W/m 12,3 C 13,2 C 3,2 km/h (1 Bft) 100,00 %
18.08.2016 07:32 13,3 C 94 % 1009,5 hPa 0,0 l/m 1,7 km/h (1 Bft) S 183 2 min 0,000 mm 0,0 UV-I 145 W/m 12,4 C 13,3 C 3,2 km/h (1 Bft) 100,00 %
18.08.2016 07:34 13,3 C 94 % 1009,5 hPa 0,0 l/m 2,9 km/h (1 Bft) S 179 2 min 0,000 mm 0,0 UV-I 137 W/m 12,4 C 13,3 C 6,4 km/h (2 Bft) 100,00 %
18.08.2016 07:36 13,4 C 94 % 1009,6 hPa 0,0 l/m 2,0 km/h (1 Bft) S 177 0 min 0,000 mm 0,0 UV-I 117 W/m 12,5 C 13,4 C 4,8 km/h (1 Bft) 100,00 %
18.08.2016 07:38 13,4 C 94 % 1009,6 hPa 0,0 l/m 2,3 km/h (1 Bft) S 177 0 min 0,000 mm 0,0 UV-I 107 W/m 12,5 C 13,4 C 4,8 km/h (1 Bft) 100,00 %
18.08.2016 07:40 13,6 C 93 % 1009,5 hPa 0,0 l/m 1,0 km/h (0 Bft) S 177 0 min 0,000 mm 0,0 UV-I 112 W/m 12,5 C 13,6 C 4,8 km/h (1 Bft) 100,00 %
18.08.2016 07:42 13,6 C 93 % 1009,5 hPa 0,0 l/m 0,9 km/h (0 Bft) S 177 0 min 0,000 mm 0,0 UV-I 123 W/m 12,5 C 13,6 C 1,6 km/h (1 Bft) 100,00 %
18.08.2016 07:44 13,7 C 93 % 1009,5 hPa 0,0 l/m 1,5 km/h (1 Bft) S 177 0 min 0,000 mm 0,0 UV-I 146 W/m 12,6 C 13,7 C 3,2 km/h (1 Bft) 97,14 %
18.08.2016 07:46 13,7 C 93 % 1009,5 hPa 0,0 l/m 2,7 km/h (1 Bft) S 177 2 min 0,000 mm 0,0 UV-I 156 W/m 12,6 C 13,7 C 4,8 km/h (1 Bft) 100,00 %
18.08.2016 07:48 13,8 C 93 % 1009,5 hPa 0,0 l/m 3,3 km/h (1 Bft) S 177 2 min 0,000 mm 0,0 UV-I 166 W/m 12,7 C 13,8 C 4,8 km/h (1 Bft) 100,00 %
18.08.2016 07:50 13,9 C 93 % 1009,5 hPa 0,0 l/m 2,0 km/h (1 Bft) S 177 2 min 0,000 mm 0,0 UV-I 173 W/m 12,8 C 13,9 C 4,8 km/h (1 Bft) 100,00 %
18.08.2016 07:52 13,9 C 93 % 1009,5 hPa 0,0 l/m 0,8 km/h (0 Bft) S 177 2 min 0,000 mm 0,0 UV-I 178 W/m 12,8 C 13,9 C 1,6 km/h (1 Bft) 98,11 %
18.08.2016 07:54 14,1 C 92 % 1009,5 hPa 0,0 l/m 1,4 km/h (1 Bft) S 177 2 min 0,000 mm 0,0 UV-I 181 W/m 12,8 C 14,1 C 3,2 km/h (1 Bft) 100,00 %
18.08.2016 07:56 14,1 C 92 % 1009,5 hPa 0,0 l/m 2,1 km/h (1 Bft) S 177 2 min 0,000 mm 0,0 UV-I 183 W/m 12,8 C 14,1 C 4,8 km/h (1 Bft) 100,00 %
18.08.2016 07:58 14,1 C 92 % 1009,4 hPa 0,0 l/m 0,4 km/h (0 Bft) S 177 2 min 0,000 mm 0,0 UV-I 185 W/m 12,8 C 14,1 C 1,6 km/h (1 Bft) 100,00 %
18.08.2016 08:00 14,2 C 92 % 1009,3 hPa 0,0 l/m 1,4 km/h (1 Bft) S 177 2 min 0,077 mm 0,4 UV-I 191 W/m 12,9 C 14,2 C 3,2 km/h (1 Bft) 100,00 %
18.08.2016 08:02 14,4 C 91 % 1009,3 hPa 0,0 l/m 1,5 km/h (1 Bft) S 175 2 min 0,000 mm 0,5 UV-I 182 W/m 12,9 C 14,4 C 4,8 km/h (1 Bft) 100,00 %
18.08.2016 08:04 14,5 C 91 % 1009,4 hPa 0,0 l/m 2,5 km/h (1 Bft) S 169 0 min 0,000 mm 0,5 UV-I 165 W/m 13,0 C 14,5 C 6,4 km/h (2 Bft) 94,29 %
18.08.2016 08:06 14,7 C 91 % 1009,4 hPa 0,0 l/m 0,8 km/h (0 Bft) S 169 2 min 0,000 mm 0,5 UV-I 222 W/m 13,2 C 14,7 C 1,6 km/h (1 Bft) 98,11 %
18.08.2016 08:08 14,8 C 91 % 1009,5 hPa 0,0 l/m 2,1 km/h (1 Bft) S-SO 163 2 min 0,000 mm 0,5 UV-I 231 W/m 13,3 C 14,8 C 6,4 km/h (2 Bft) 100,00 %
18.08.2016 08:10 14,9 C 89 % 1009,4 hPa 0,0 l/m 4,4 km/h (1 Bft) O 91 2 min 0,000 mm 0,5 UV-I 234 W/m 13,1 C 14,9 C 6,4 km/h (2 Bft) 100,00 %
18.08.2016 08:12 14,9 C 88 % 1009,4 hPa 0,0 l/m 3,6 km/h (1 Bft) O 90 2 min 0,000 mm 0,6 UV-I 243 W/m 12,9 C 14,9 C 4,8 km/h (1 Bft) 95,74 %
18.08.2016 08:14 15,0 C 88 % 1009,4 hPa 0,0 l/m 2,8 km/h (1 Bft) O 88 2 min 0,000 mm 0,6 UV-I 257 W/m 13,0 C 15,0 C 4,8 km/h (1 Bft) 100,00 %
18.08.2016 08:16 15,1 C 87 % 1009,4 hPa 0,0 l/m 2,3 km/h (1 Bft) O 88 2 min 0,000 mm 0,6 UV-I 258 W/m 13,0 C 15,1 C 3,2 km/h (1 Bft) 100,00 %
18.08.2016 08:18 15,2 C 88 % 1009,4 hPa 0,0 l/m 4,1 km/h (1 Bft) O 82 2 min 0,000 mm 0,7 UV-I 264 W/m 13,2 C 15,2 C 6,4 km/h (2 Bft) 100,00 %
18.08.2016 08:20 15,3 C 87 % 1009,4 hPa 0,0 l/m 4,4 km/h (1 Bft) O-NO 70 2 min 0,000 mm 0,7 UV-I 271 W/m 13,1 C 15,3 C 6,4 km/h (2 Bft) 98,11 %
18.08.2016 08:22 15,4 C 86 % 1009,4 hPa 0,0 l/m 6,0 km/h (2 Bft) NO 49 2 min 0,000 mm 0,7 UV-I 276 W/m 13,1 C 15,4 C 8,0 km/h (2 Bft) 100,00 %
18.08.2016 08:24 15,4 C 87 % 1009,3 hPa 0,0 l/m 4,4 km/h (1 Bft) NO 49 2 min 0,000 mm 0,7 UV-I 280 W/m 13,2 C 15,4 C 6,4 km/h (2 Bft) 100,00 %
18.08.2016 08:26 15,4 C 86 % 1009,3 hPa 0,0 l/m 4,0 km/h (1 Bft) NO 52 2 min 0,000 mm 0,8 UV-I 276 W/m 13,1 C 15,4 C 6,4 km/h (2 Bft) 96,00 %
18.08.2016 08:28 15,6 C 87 % 1009,4 hPa 0,0 l/m 5,3 km/h (1 Bft) NO 43 2 min 0,000 mm 0,8 UV-I 276 W/m 13,4 C 15,6 C 8,0 km/h (2 Bft) 100,00 %
18.08.2016 08:30 15,6 C 86 % 1009,4 hPa 0,0 l/m 4,7 km/h (1 Bft) NO 44 2 min 0,000 mm 0,8 UV-I 279 W/m 13,3 C 15,6 C 6,4 km/h (2 Bft) 100,00 %
18.08.2016 08:32 15,7 C 86 % 1009,3 hPa 0,0 l/m 4,0 km/h (1 Bft) NO 40 2 min 0,000 mm 0,8 UV-I 275 W/m 13,4 C 15,7 C 4,8 km/h (1 Bft) 96,00 %
18.08.2016 08:34 15,7 C 85 % 1009,4 hPa 0,0 l/m 3,7 km/h (1 Bft) NO 55 2 min 0,000 mm 0,9 UV-I 275 W/m 13,2 C 15,7 C 4,8 km/h (1 Bft) 98,11 %
18.08.2016 08:36 15,8 C 85 % 1009,4 hPa 0,0 l/m 3,3 km/h (1 Bft) NO 54 2 min 0,000 mm 0,9 UV-I 274 W/m 13,3 C 15,8 C 6,4 km/h (2 Bft) 97,56 %
18.08.2016 08:38 15,8 C 86 % 1009,4 hPa 0,0 l/m 3,3 km/h (1 Bft) NO 53 2 min 0,000 mm 0,9 UV-I 284 W/m 13,5 C 15,8 C 4,8 km/h (1 Bft) 97,87 %
18.08.2016 08:40 16,0 C 86 % 1009,4 hPa 0,0 l/m 2,6 km/h (1 Bft) NO 53 2 min 0,000 mm 1,0 UV-I 289 W/m 13,7 C 16,0 C 4,8 km/h (1 Bft) 98,11 %
18.08.2016 08:42 16,1 C 86 % 1009,4 hPa 0,0 l/m 3,1 km/h (1 Bft) NO 53 2 min 0,000 mm 1,0 UV-I 288 W/m 13,8 C 16,1 C 6,4 km/h (2 Bft) 97,37 %
18.08.2016 08:44 16,2 C 85 % 1009,4 hPa 0,0 l/m 3,0 km/h (1 Bft) NO 53 2 min 0,000 mm 1,0 UV-I 282 W/m 13,7 C 16,2 C 4,8 km/h (1 Bft) 95,74 %
18.08.2016 08:46 16,3 C 85 % 1009,4 hPa 0,0 l/m 3,3 km/h (1 Bft) NO 52 2 min 0,000 mm 1,0 UV-I 279 W/m 13,8 C 16,3 C 4,8 km/h (1 Bft) 97,22 %
18.08.2016 08:48 16,3 C 85 % 1009,4 hPa 0,0 l/m 4,4 km/h (1 Bft) NO 52 2 min 0,000 mm 1,0 UV-I 274 W/m 13,8 C 16,3 C 6,4 km/h (2 Bft) 96,72 %
18.08.2016 08:50 16,4 C 83 % 1009,4 hPa 0,0 l/m 2,4 km/h (1 Bft) NO 53 0 min 0,000 mm 1,0 UV-I 243 W/m 13,5 C 16,4 C 4,8 km/h (1 Bft) 95,74 %
18.08.2016 08:52 16,4 C 84 % 1009,4 hPa 0,0 l/m 1,1 km/h (1 Bft) NO 53 2 min 0,000 mm 1,1 UV-I 265 W/m 13,7 C 16,4 C 3,2 km/h (1 Bft) 96,00 %
18.08.2016 08:54 16,4 C 85 % 1009,5 hPa 0,0 l/m 1,1 km/h (1 Bft) NO 53 0 min 0,000 mm 1,0 UV-I 177 W/m 13,9 C 16,4 C 3,2 km/h (1 Bft) 98,00 %
18.08.2016 08:56 16,4 C 84 % 1009,5 hPa 0,0 l/m 2,1 km/h (1 Bft) NO 54 0 min 0,000 mm 1,0 UV-I 163 W/m 13,7 C 16,4 C 3,2 km/h (1 Bft) 94,44 %
18.08.2016 08:58 16,3 C 84 % 1009,5 hPa 0,0 l/m 1,5 km/h (1 Bft) O-NO 59 0 min 0,000 mm 1,1 UV-I 207 W/m 13,6 C 16,3 C 3,2 km/h (1 Bft) 98,28 %
18.08.2016 09:00 16,3 C 85 % 1009,5 hPa 0,0 l/m 1,3 km/h (1 Bft) O-NO 59 0 min 0,127 mm 1,1 UV-I 222 W/m 13,8 C 16,3 C 3,2 km/h (1 Bft) 97,67 %
18.08.2016 09:02 16,2 C 85 % 1009,6 hPa 0,0 l/m 1,4 km/h (1 Bft) O-NO 59 0 min 0,000 mm 1,0 UV-I 199 W/m 13,7 C 16,2 C 3,2 km/h (1 Bft) 100,00 %
18.08.2016 09:04 16,2 C 85 % 1009,5 hPa 0,0 l/m 1,1 km/h (1 Bft) O-NO 59 0 min 0,000 mm 1,1 UV-I 206 W/m 13,7 C 16,2 C 1,6 km/h (1 Bft) 95,74 %
18.08.2016 09:06 16,2 C 86 % 1009,5 hPa 0,0 l/m 1,0 km/h (0 Bft) O-NO 59 0 min 0,000 mm 1,1 UV-I 192 W/m 13,9 C 16,2 C 1,6 km/h (1 Bft) 100,00 %
18.08.2016 09:08 16,2 C 85 % 1009,5 hPa 0,0 l/m 1,7 km/h (1 Bft) O-NO 61 0 min 0,000 mm 1,1 UV-I 164 W/m 13,7 C 16,2 C 3,2 km/h (1 Bft) 98,21 %
18.08.2016 09:10 16,3 C 85 % 1009,6 hPa 0,0 l/m 1,6 km/h (1 Bft) O-NO 63 0 min 0,000 mm 1,1 UV-I 162 W/m 13,8 C 16,3 C 4,8 km/h (1 Bft) 97,87 %
18.08.2016 09:12 16,3 C 85 % 1009,6 hPa 0,0 l/m 0,7 km/h (0 Bft) O-NO 65 0 min 0,000 mm 1,3 UV-I 163 W/m 13,8 C 16,3 C 3,2 km/h (1 Bft) 100,00 %
18.08.2016 09:14 16,5 C 85 % 1009,6 hPa 0,0 l/m 1,1 km/h (1 Bft) O-NO 65 2 min 0,000 mm 1,4 UV-I 451 W/m 14,0 C 16,5 C 3,2 km/h (1 Bft) 100,00 %
18.08.2016 09:16 16,7 C 86 % 1009,6 hPa 0,0 l/m 0,7 km/h (0 Bft) O-NO 65 2 min 0,000 mm 1,4 UV-I 485 W/m 14,3 C 16,7 C 3,2 km/h (1 Bft) 100,00 %
18.08.2016 09:18 16,7 C 84 % 1009,7 hPa 0,0 l/m 1,0 km/h (0 Bft) O-NO 65 2 min 0,000 mm 1,4 UV-I 496 W/m 14,0 C 16,7 C 3,2 km/h (1 Bft) 98,21 %
18.08.2016 09:20 16,9 C 85 % 1009,6 hPa 0,0 l/m 2,2 km/h (1 Bft) NO 56 2 min 0,000 mm 1,4 UV-I 434 W/m 14,4 C 16,9 C 4,8 km/h (1 Bft) 97,56 %
18.08.2016 09:22 17,1 C 84 % 1009,6 hPa 0,0 l/m 2,6 km/h (1 Bft) NO 46 2 min 0,000 mm 1,3 UV-I 316 W/m 14,4 C 17,1 C 6,4 km/h (2 Bft) 100,00 %
18.08.2016 09:24 17,2 C 84 % 1009,6 hPa 0,0 l/m 2,1 km/h (1 Bft) NO 46 0 min 0,000 mm 1,4 UV-I 249 W/m 14,5 C 17,2 C 4,8 km/h (1 Bft) 100,00 %
18.08.2016 09:26 17,0 C 83 % 1009,6 hPa 0,0 l/m 0,6 km/h (0 Bft) NO 46 0 min 0,000 mm 1,4 UV-I 232 W/m 14,1 C 17,0 C 1,6 km/h (1 Bft) 100,00 %
18.08.2016 09:28 16,9 C 83 % 1009,5 hPa 0,0 l/m 0,0 km/h (0 Bft) NO 46 0 min 0,000 mm 1,6 UV-I 291 W/m 14,0 C 16,9 C 1,6 km/h (1 Bft) 100,00 %
18.08.2016 09:30 17,3 C 85 % 1009,5 hPa 0,0 l/m 1,6 km/h (1 Bft) NO 41 2 min 0,000 mm 1,7 UV-I 512 W/m 14,8 C 17,3 C 3,2 km/h (1 Bft) 100,00 %
18.08.2016 09:32 17,4 C 82 % 1009,5 hPa 0,0 l/m 1,2 km/h (1 Bft) NO 40 2 min 0,000 mm 1,7 UV-I 439 W/m 14,3 C 17,4 C 4,8 km/h (1 Bft) 100,00 %
18.08.2016 09:34 17,4 C 83 % 1009,5 hPa 0,0 l/m 1,5 km/h (1 Bft) NO 41 2 min 0,000 mm 1,6 UV-I 365 W/m 14,5 C 17,4 C 4,8 km/h (1 Bft) 100,00 %
18.08.2016 09:36 17,4 C 83 % 1009,5 hPa 0,0 l/m 3,3 km/h (1 Bft) NO 41 2 min 0,000 mm 1,8 UV-I 363 W/m 14,5 C 17,4 C 4,8 km/h (1 Bft) 100,00 %
18.08.2016 09:38 17,7 C 84 % 1009,5 hPa 0,0 l/m 2,5 km/h (1 Bft) NO 41 2 min 0,000 mm 1,8 UV-I 559 W/m 15,0 C 17,7 C 4,8 km/h (1 Bft) 100,00 %
18.08.2016 09:40 17,8 C 82 % 1009,4 hPa 0,0 l/m 0,5 km/h (0 Bft) NO 40 0 min 0,000 mm 1,5 UV-I 286 W/m 14,7 C 17,8 C 1,6 km/h (1 Bft) 100,00 %
18.08.2016 09:42 17,8 C 81 % 1009,4 hPa 0,0 l/m 3,2 km/h (1 Bft) NO 37 0 min 0,000 mm 1,6 UV-I 229 W/m 14,5 C 17,8 C 8,0 km/h (2 Bft) 100,00 %
18.08.2016 09:44 17,8 C 82 % 1009,4 hPa 0,0 l/m 4,2 km/h (1 Bft) N-NO 30 0 min 0,000 mm 1,9 UV-I 302 W/m 14,7 C 17,8 C 9,7 km/h (2 Bft) 100,00 %
18.08.2016 09:46 17,7 C 81 % 1009,4 hPa 0,0 l/m 3,0 km/h (1 Bft) N-NO 27 2 min 0,000 mm 2,0 UV-I 360 W/m 14,4 C 17,7 C 6,4 km/h (2 Bft) 100,00 %
18.08.2016 09:48 17,8 C 83 % 1009,4 hPa 0,0 l/m 1,9 km/h (1 Bft) N-NO 27 2 min 0,000 mm 2,1 UV-I 513 W/m 14,9 C 17,8 C 4,8 km/h (1 Bft) 100,00 %
18.08.2016 09:50 18,0 C 82 % 1009,4 hPa 0,0 l/m 4,2 km/h (1 Bft) NO 49 2 min 0,000 mm 2,1 UV-I 508 W/m 14,9 C 18,0 C 6,4 km/h (2 Bft) 100,00 %
18.08.2016 09:52 18,1 C 81 % 1009,4 hPa 0,0 l/m 2,6 km/h (1 Bft) NO 48 2 min 0,000 mm 2,2 UV-I 518 W/m 14,8 C 18,1 C 4,8 km/h (1 Bft) 100,00 %
18.08.2016 09:54 18,2 C 81 % 1009,4 hPa 0,0 l/m 3,4 km/h (1 Bft) O-NO 72 2 min 0,000 mm 2,2 UV-I 505 W/m 14,9 C 18,2 C 6,4 km/h (2 Bft) 100,00 %
18.08.2016 09:56 18,2 C 80 % 1009,5 hPa 0,0 l/m 5,1 km/h (1 Bft) O 83 2 min 0,000 mm 2,2 UV-I 533 W/m 14,7 C 18,2 C 6,4 km/h (2 Bft) 100,00 %
18.08.2016 09:58 18,2 C 80 % 1009,5 hPa 0,0 l/m 3,9 km/h (1 Bft) O-NO 69 2 min 0,000 mm 2,2 UV-I 547 W/m 14,7 C 18,2 C 6,4 km/h (2 Bft) 100,00 %
18.08.2016 10:00 18,2 C 81 % 1009,4 hPa 0,0 l/m 1,7 km/h (1 Bft) O-NO 69 2 min 0,203 mm 2,2 UV-I 546 W/m 14,9 C 18,2 C 4,8 km/h (1 Bft) 100,00 %
18.08.2016 10:02 18,3 C 79 % 1009,5 hPa 0,0 l/m 4,3 km/h (1 Bft) O-NO 71 2 min 0,000 mm 2,3 UV-I 552 W/m 14,6 C 18,3 C 6,4 km/h (2 Bft) 97,37 %
18.08.2016 10:04 18,3 C 80 % 1009,4 hPa 0,0 l/m 5,1 km/h (1 Bft) NO 55 2 min 0,000 mm 2,3 UV-I 566 W/m 14,8 C 18,3 C 8,0 km/h (2 Bft) 98,11 %
18.08.2016 10:06 18,5 C 81 % 1009,4 hPa 0,0 l/m 4,5 km/h (1 Bft) NO 48 2 min 0,000 mm 2,4 UV-I 585 W/m 15,2 C 18,5 C 6,4 km/h (2 Bft) 100,00 %
18.08.2016 10:08 18,5 C 79 % 1009,3 hPa 0,0 l/m 3,7 km/h (1 Bft) NO 43 2 min 0,000 mm 2,4 UV-I 525 W/m 14,8 C 18,5 C 6,4 km/h (2 Bft) 100,00 %
18.08.2016 10:10 18,7 C 81 % 1009,3 hPa 0,0 l/m 4,8 km/h (1 Bft) NO 35 2 min 0,000 mm 2,4 UV-I 487 W/m 15,4 C 18,7 C 8,0 km/h (2 Bft) 100,00 %
18.08.2016 10:12 18,8 C 78 % 1009,3 hPa 0,0 l/m 5,1 km/h (1 Bft) O-NO 74 2 min 0,000 mm 2,6 UV-I 594 W/m 14,9 C 18,8 C 8,0 km/h (2 Bft) 100,00 %
18.08.2016 10:14 18,8 C 81 % 1009,3 hPa 0,0 l/m 3,3 km/h (1 Bft) NO 37 2 min 0,000 mm 2,6 UV-I 622 W/m 15,5 C 18,8 C 4,8 km/h (1 Bft) 100,00 %
18.08.2016 10:16 18,9 C 78 % 1009,3 hPa 0,0 l/m 3,6 km/h (1 Bft) NO 38 2 min 0,000 mm 2,6 UV-I 670 W/m 15,0 C 18,9 C 4,8 km/h (1 Bft) 96,00 %
18.08.2016 10:18 18,8 C 78 % 1009,3 hPa 0,0 l/m 2,0 km/h (1 Bft) NO 37 2 min 0,000 mm 2,3 UV-I 374 W/m 14,9 C 18,8 C 4,8 km/h (1 Bft) 98,11 %
18.08.2016 10:20 18,7 C 78 % 1009,4 hPa 0,0 l/m 1,0 km/h (0 Bft) NO 37 0 min 0,000 mm 2,2 UV-I 274 W/m 14,8 C 18,7 C 1,6 km/h (1 Bft) 100,00 %
18.08.2016 10:22 18,8 C 79 % 1009,3 hPa 0,0 l/m 0,9 km/h (0 Bft) NO 35 0 min 0,000 mm 2,5 UV-I 278 W/m 15,1 C 18,8 C 1,6 km/h (1 Bft) 100,00 %
18.08.2016 10:24 19,1 C 78 % 1009,3 hPa 0,0 l/m 1,2 km/h (1 Bft) NO 34 2 min 0,000 mm 2,5 UV-I 534 W/m 15,2 C 19,1 C 3,2 km/h (1 Bft) 95,74 %
18.08.2016 10:26 19,2 C 77 % 1009,3 hPa 0,0 l/m 2,8 km/h (1 Bft) N-NO 23 2 min 0,000 mm 2,6 UV-I 588 W/m 15,1 C 19,2 C 4,8 km/h (1 Bft) 98,00 %
18.08.2016 10:28 19,3 C 79 % 1009,3 hPa 0,0 l/m 4,0 km/h (1 Bft) NO 35 2 min 0,000 mm 2,9 UV-I 675 W/m 15,6 C 19,3 C 6,4 km/h (2 Bft) 97,56 %
18.08.2016 10:30 19,6 C 80 % 1009,3 hPa 0,0 l/m 1,7 km/h (1 Bft) N 5 2 min 0,000 mm 3,0 UV-I 710 W/m 16,1 C 19,6 C 4,8 km/h (1 Bft) 97,87 %
18.08.2016 10:32 19,7 C 77 % 1009,3 hPa 0,0 l/m 2,1 km/h (1 Bft) N-NO 25 2 min 0,000 mm 2,7 UV-I 647 W/m 15,5 C 19,7 C 6,4 km/h (2 Bft) 96,23 %
18.08.2016 10:34 19,7 C 76 % 1009,3 hPa 0,0 l/m 1,7 km/h (1 Bft) N 350 2 min 0,000 mm 2,4 UV-I 524 W/m 15,3 C 19,7 C 6,4 km/h (2 Bft) 97,87 %
18.08.2016 10:36 19,7 C 78 % 1009,3 hPa 0,0 l/m 2,7 km/h (1 Bft) N-NO 15 0 min 0,000 mm 2,5 UV-I 349 W/m 15,8 C 19,7 C 4,8 km/h (1 Bft) 94,74 %
18.08.2016 10:38 19,7 C 77 % 1009,4 hPa 0,0 l/m 1,4 km/h (1 Bft) N-NO 14 0 min 0,000 mm 2,7 UV-I 371 W/m 15,5 C 19,7 C 3,2 km/h (1 Bft) 97,87 %
18.08.2016 10:40 19,7 C 77 % 1009,3 hPa 0,0 l/m 2,8 km/h (1 Bft) NO 50 2 min 0,000 mm 2,9 UV-I 519 W/m 15,5 C 19,7 C 6,4 km/h (2 Bft) 97,87 %
18.08.2016 10:42 19,7 C 75 % 1009,3 hPa 0,0 l/m 2,6 km/h (1 Bft) NO 42 2 min 0,000 mm 3,1 UV-I 678 W/m 15,1 C 19,7 C 6,4 km/h (2 Bft) 95,74 %
18.08.2016 10:44 19,7 C 75 % 1009,3 hPa 0,0 l/m 0,3 km/h (0 Bft) NO 41 2 min 0,000 mm 3,2 UV-I 660 W/m 15,1 C 19,7 C 1,6 km/h (1 Bft) 95,74 %
18.08.2016 10:46 19,7 C 75 % 1009,3 hPa 0,0 l/m 1,3 km/h (1 Bft) N 9 2 min 0,000 mm 3,2 UV-I 637 W/m 15,1 C 19,7 C 3,2 km/h (1 Bft) 98,11 %
18.08.2016 10:48 19,8 C 76 % 1009,3 hPa 0,0 l/m 1,5 km/h (1 Bft) N-NO 14 2 min 0,000 mm 3,3 UV-I 636 W/m 15,4 C 19,8 C 3,2 km/h (1 Bft) 94,00 %
18.08.2016 10:50 19,8 C 75 % 1009,3 hPa 0,0 l/m 1,0 km/h (0 Bft) N 351 2 min 0,000 mm 3,4 UV-I 633 W/m 15,2 C 19,8 C 1,6 km/h (1 Bft) 97,44 %
18.08.2016 10:52 20,2 C 76 % 1009,4 hPa 0,0 l/m 2,1 km/h (1 Bft) N-NO 28 2 min 0,000 mm 3,4 UV-I 642 W/m 15,8 C 20,2 C 6,4 km/h (2 Bft) 97,87 %
18.08.2016 10:54 20,3 C 75 % 1009,4 hPa 0,0 l/m 2,7 km/h (1 Bft) NW 319 2 min 0,000 mm 3,4 UV-I 652 W/m 15,7 C 20,3 C 6,4 km/h (2 Bft) 97,87 %
18.08.2016 10:56 20,4 C 75 % 1009,4 hPa 0,0 l/m 1,4 km/h (1 Bft) NW 321 2 min 0,000 mm 3,5 UV-I 644 W/m 15,8 C 20,4 C 4,8 km/h (1 Bft) 100,00 %
18.08.2016 10:58 20,4 C 74 % 1009,4 hPa 0,0 l/m 2,3 km/h (1 Bft) N-NO 28 2 min 0,000 mm 3,5 UV-I 649 W/m 15,6 C 20,4 C 4,8 km/h (1 Bft) 100,00 %
18.08.2016 11:00 20,6 C 76 % 1009,4 hPa 0,0 l/m 5,3 km/h (1 Bft) N-NO 30 2 min 0,330 mm 3,5 UV-I 652 W/m 16,2 C 20,6 C 8,0 km/h (2 Bft) 97,18 %
18.08.2016 11:02 20,7 C 75 % 1009,4 hPa 0,0 l/m 4,5 km/h (1 Bft) N-NO 27 2 min 0,000 mm 3,6 UV-I 652 W/m 16,1 C 20,7 C 6,4 km/h (2 Bft) 97,56 %
18.08.2016 11:04 20,7 C 73 % 1009,4 hPa 0,0 l/m 2,3 km/h (1 Bft) N 355 2 min 0,000 mm 3,6 UV-I 658 W/m 15,7 C 20,7 C 4,8 km/h (1 Bft) 100,00 %
18.08.2016 11:06 20,8 C 72 % 1009,3 hPa 0,0 l/m 2,2 km/h (1 Bft) N 349 2 min 0,000 mm 3,7 UV-I 663 W/m 15,6 C 20,8 C 4,8 km/h (1 Bft) 100,00 %
18.08.2016 11:08 20,9 C 70 % 1009,3 hPa 0,0 l/m 3,8 km/h (1 Bft) N-NO 13 2 min 0,000 mm 3,7 UV-I 669 W/m 15,2 C 20,9 C 11,3 km/h (2 Bft) 100,00 %
18.08.2016 11:10 20,6 C 73 % 1009,3 hPa 0,0 l/m 1,9 km/h (1 Bft) N-NW 346 2 min 0,000 mm 3,8 UV-I 676 W/m 15,6 C 20,6 C 3,2 km/h (1 Bft) 100,00 %
18.08.2016 11:12 20,7 C 73 % 1009,3 hPa 0,0 l/m 2,1 km/h (1 Bft) N-NW 348 2 min 0,000 mm 3,7 UV-I 680 W/m 15,7 C 20,7 C 4,8 km/h (1 Bft) 100,00 %
18.08.2016 11:14 20,6 C 74 % 1009,3 hPa 0,0 l/m 1,7 km/h (1 Bft) N-NO 28 2 min 0,000 mm 3,3 UV-I 676 W/m 15,8 C 20,6 C 4,8 km/h (1 Bft) 100,00 %
18.08.2016 11:16 20,8 C 73 % 1009,4 hPa 0,0 l/m 2,2 km/h (1 Bft) N-NW 348 2 min 0,000 mm 3,9 UV-I 681 W/m 15,8 C 20,8 C 4,8 km/h (1 Bft) 100,00 %
18.08.2016 11:18 21,2 C 72 % 1009,3 hPa 0,0 l/m 1,2 km/h (1 Bft) N 5 2 min 0,000 mm 3,9 UV-I 684 W/m 15,9 C 21,2 C 3,2 km/h (1 Bft) 100,00 %
18.08.2016 11:20 21,3 C 70 % 1009,3 hPa 0,0 l/m 3,6 km/h (1 Bft) N-NW 334 2 min 0,000 mm 4,0 UV-I 691 W/m 15,6 C 21,3 C 6,4 km/h (2 Bft) 98,21 %
18.08.2016 11:22 21,1 C 70 % 1009,4 hPa 0,0 l/m 0,8 km/h (0 Bft) N-NW 333 2 min 0,000 mm 4,0 UV-I 686 W/m 15,4 C 21,1 C 1,6 km/h (1 Bft) 100,00 %
18.08.2016 11:24 21,0 C 69 % 1009,4 hPa 0,0 l/m 2,5 km/h (1 Bft) NW 317 2 min 0,000 mm 4,0 UV-I 690 W/m 15,1 C 21,0 C 4,8 km/h (1 Bft) 100,00 %
18.08.2016 11:26 20,9 C 70 % 1009,4 hPa 0,0 l/m 2,5 km/h (1 Bft) NW 323 2 min 0,000 mm 4,0 UV-I 683 W/m 15,2 C 20,9 C 3,2 km/h (1 Bft) 100,00 %
18.08.2016 11:28 21,2 C 71 % 1009,4 hPa 0,0 l/m 1,6 km/h (1 Bft) W 277 2 min 0,000 mm 4,0 UV-I 694 W/m 15,7 C 21,2 C 9,7 km/h (2 Bft) 98,00 %
18.08.2016 11:30 21,2 C 68 % 1009,4 hPa 0,0 l/m 5,4 km/h (1 Bft) W-NW 301 2 min 0,000 mm 3,7 UV-I 715 W/m 15,1 C 21,2 C 6,4 km/h (2 Bft) 100,00 %
18.08.2016 11:32 21,1 C 70 % 1009,4 hPa 0,0 l/m 3,8 km/h (1 Bft) W-NW 290 2 min 0,000 mm 4,2 UV-I 742 W/m 15,4 C 21,1 C 6,4 km/h (2 Bft) 100,00 %
18.08.2016 11:34 21,2 C 69 % 1009,4 hPa 0,0 l/m 3,3 km/h (1 Bft) W-NW 290 2 min 0,000 mm 4,2 UV-I 746 W/m 15,3 C 21,2 C 6,4 km/h (2 Bft) 100,00 %
18.08.2016 11:36 21,2 C 70 % 1009,4 hPa 0,0 l/m 0,7 km/h (0 Bft) W-NW 302 2 min 0,000 mm 4,3 UV-I 735 W/m 15,5 C 21,2 C 1,6 km/h (1 Bft) 100,00 %
18.08.2016 11:38 21,4 C 70 % 1009,4 hPa 0,0 l/m 2,6 km/h (1 Bft) S-SW 211 2 min 0,000 mm 4,3 UV-I 745 W/m 15,7 C 21,4 C 8,0 km/h (2 Bft) 100,00 %
18.08.2016 11:40 21,3 C 70 % 1009,4 hPa 0,0 l/m 2,0 km/h (1 Bft) S 173 2 min 0,000 mm 4,4 UV-I 741 W/m 15,6 C 21,3 C 6,4 km/h (2 Bft) 100,00 %
18.08.2016 11:42 21,2 C 69 % 1009,4 hPa 0,0 l/m 1,5 km/h (1 Bft) S 173 2 min 0,000 mm 4,1 UV-I 734 W/m 15,3 C 21,2 C 4,8 km/h (1 Bft) 100,00 %
18.08.2016 11:44 21,4 C 71 % 1009,3 hPa 0,0 l/m 3,1 km/h (1 Bft) S-SW 200 2 min 0,000 mm 4,3 UV-I 726 W/m 15,9 C 21,4 C 6,4 km/h (2 Bft) 100,00 %
18.08.2016 11:46 21,7 C 68 % 1009,2 hPa 0,0 l/m 4,5 km/h (1 Bft) S 190 2 min 0,000 mm 4,5 UV-I 750 W/m 15,5 C 21,7 C 9,7 km/h (2 Bft) 100,00 %
18.08.2016 11:48 21,8 C 69 % 1009,2 hPa 0,0 l/m 3,7 km/h (1 Bft) S-SW 213 2 min 0,000 mm 4,5 UV-I 778 W/m 15,9 C 21,8 C 6,4 km/h (2 Bft) 100,00 %
18.08.2016 11:50 21,8 C 70 % 1009,3 hPa 0,0 l/m 1,9 km/h (1 Bft) S-SW 199 2 min 0,000 mm 4,2 UV-I 793 W/m 16,1 C 21,8 C 6,4 km/h (2 Bft) 100,00 %
18.08.2016 11:52 21,9 C 66 % 1009,2 hPa 0,0 l/m 1,9 km/h (1 Bft) W-SW 253 2 min 0,000 mm 3,6 UV-I 793 W/m 15,3 C 21,9 C 3,2 km/h (1 Bft) 100,00 %
18.08.2016 11:54 22,0 C 68 % 1009,3 hPa 0,0 l/m 2,2 km/h (1 Bft) W 274 2 min 0,000 mm 4,6 UV-I 810 W/m 15,8 C 22,0 C 4,8 km/h (1 Bft) 97,37 %
18.08.2016 11:56 22,1 C 65 % 1009,3 hPa 0,0 l/m 9,2 km/h (2 Bft) W 262 2 min 0,000 mm 4,2 UV-I 857 W/m 15,2 C 21,2 C 14,5 km/h (3 Bft) 100,00 %
18.08.2016 11:58 21,9 C 66 % 1009,3 hPa 0,0 l/m 5,9 km/h (2 Bft) W-SW 248 2 min 0,000 mm 3,4 UV-I 856 W/m 15,3 C 21,9 C 9,7 km/h (2 Bft) 100,00 %
18.08.2016 12:00 21,7 C 65 % 1009,3 hPa 0,0 l/m 3,0 km/h (1 Bft) W 276 2 min 0,406 mm 2,9 UV-I 699 W/m 14,8 C 21,7 C 12,9 km/h (3 Bft) 100,00 %
18.08.2016 12:02 21,6 C 67 % 1009,3 hPa 0,0 l/m 7,0 km/h (2 Bft) W-NW 283 0 min 0,000 mm 2,7 UV-I 352 W/m 15,2 C 21,4 C 12,9 km/h (3 Bft) 100,00 %
18.08.2016 12:04 21,6 C 64 % 1009,3 hPa 0,0 l/m 6,0 km/h (2 Bft) W 273 0 min 0,000 mm 3,0 UV-I 327 W/m 14,5 C 21,6 C 11,3 km/h (2 Bft) 100,00 %
18.08.2016 12:06 21,6 C 63 % 1009,3 hPa 0,0 l/m 2,9 km/h (1 Bft) W-SW 252 0 min 0,000 mm 2,9 UV-I 327 W/m 14,2 C 21,6 C 6,4 km/h (2 Bft) 100,00 %
18.08.2016 12:08 21,5 C 63 % 1009,3 hPa 0,0 l/m 2,9 km/h (1 Bft) SW 229 0 min 0,000 mm 2,5 UV-I 270 W/m 14,2 C 21,5 C 4,8 km/h (1 Bft) 100,00 %
18.08.2016 12:10 21,4 C 63 % 1009,3 hPa 0,0 l/m 5,4 km/h (1 Bft) W 272 0 min 0,000 mm 2,3 UV-I 264 W/m 14,1 C 21,4 C 8,0 km/h (2 Bft) 100,00 %
18.08.2016 12:12 21,4 C 65 % 1009,3 hPa 0,0 l/m 8,7 km/h (2 Bft) SW 227 0 min 0,000 mm 1,9 UV-I 244 W/m 14,5 C 20,6 C 16,1 km/h (3 Bft) 97,56 %
18.08.2016 12:14 21,4 C 64 % 1009,4 hPa 0,0 l/m 7,0 km/h (2 Bft) SW 225 0 min 0,000 mm 1,7 UV-I 217 W/m 14,3 C 21,2 C 11,3 km/h (2 Bft) 100,00 %
18.08.2016 12:16 21,3 C 65 % 1009,4 hPa 0,0 l/m 4,0 km/h (1 Bft) W-SW 247 0 min 0,000 mm 1,4 UV-I 190 W/m 14,4 C 21,3 C 6,4 km/h (2 Bft) 100,00 %
18.08.2016 12:18 21,3 C 66 % 1009,4 hPa 0,0 l/m 7,7 km/h (2 Bft) W-SW 257 0 min 0,000 mm 1,2 UV-I 166 W/m 14,7 C 20,8 C 11,3 km/h (2 Bft) 100,00 %
18.08.2016 12:20 21,3 C 66 % 1009,2 hPa 0,0 l/m 8,6 km/h (2 Bft) W-SW 242 0 min 0,000 mm 1,4 UV-I 177 W/m 14,7 C 20,5 C 12,9 km/h (3 Bft) 97,87 %
18.08.2016 12:22 21,3 C 67 % 1009,3 hPa 0,0 l/m 7,1 km/h (2 Bft) W-SW 257 0 min 0,000 mm 1,9 UV-I 264 W/m 14,9 C 21,0 C 11,3 km/h (2 Bft) 94,74 %
18.08.2016 12:24 21,4 C 66 % 1009,2 hPa 0,0 l/m 5,9 km/h (2 Bft) W-SW 250 0 min 0,000 mm 2,0 UV-I 262 W/m 14,8 C 21,4 C 11,3 km/h (2 Bft) 98,18 %
18.08.2016 12:26 21,3 C 65 % 1009,2 hPa 0,0 l/m 4,4 km/h (1 Bft) S-SW 200 0 min 0,000 mm 1,8 UV-I 209 W/m 14,4 C 21,3 C 6,4 km/h (2 Bft) 96,00 %
18.08.2016 12:28 21,3 C 65 % 1009,2 hPa 0,0 l/m 3,9 km/h (1 Bft) S-SW 195 0 min 0,000 mm 1,7 UV-I 207 W/m 14,4 C 21,3 C 6,4 km/h (2 Bft) 95,45 %
18.08.2016 12:30 21,3 C 66 % 1009,3 hPa 0,0 l/m 4,4 km/h (1 Bft) S-SW 207 0 min 0,000 mm 1,4 UV-I 174 W/m 14,7 C 21,3 C 8,0 km/h (2 Bft) 97,56 %
18.08.2016 12:32 21,2 C 67 % 1009,3 hPa 0,0 l/m 5,7 km/h (1 Bft) S-SW 207 0 min 0,000 mm 1,1 UV-I 153 W/m 14,8 C 21,2 C 8,0 km/h (2 Bft) 94,34 %
18.08.2016 12:34 21,1 C 67 % 1009,3 hPa 0,0 l/m 5,0 km/h (1 Bft) SW 232 0 min 0,000 mm 1,1 UV-I 156 W/m 14,7 C 21,1 C 9,7 km/h (2 Bft) 97,56 %
18.08.2016 12:36 21,1 C 67 % 1009,3 hPa 0,0 l/m 9,4 km/h (2 Bft) SW 225 0 min 0,000 mm 1,2 UV-I 170 W/m 14,7 C 20,0 C 16,1 km/h (3 Bft) 97,87 %
18.08.2016 12:38 21,0 C 67 % 1009,3 hPa 0,0 l/m 9,1 km/h (2 Bft) S-SW 207 0 min 0,000 mm 1,4 UV-I 194 W/m 14,6 C 20,0 C 12,9 km/h (3 Bft) 98,11 %
18.08.2016 12:40 20,9 C 67 % 1009,3 hPa 0,0 l/m 7,4 km/h (2 Bft) SW 219 0 min 0,000 mm 1,8 UV-I 237 W/m 14,5 C 20,5 C 9,7 km/h (2 Bft) 95,12 %
18.08.2016 12:42 21,0 C 68 % 1009,2 hPa 0,0 l/m 9,0 km/h (2 Bft) SW 217 0 min 0,000 mm 1,8 UV-I 252 W/m 14,9 C 20,1 C 16,1 km/h (3 Bft) 98,00 %
18.08.2016 12:44 21,0 C 68 % 1009,2 hPa 0,0 l/m 5,6 km/h (1 Bft) S-SW 202 0 min 0,000 mm 1,9 UV-I 254 W/m 14,9 C 21,0 C 9,7 km/h (2 Bft) 97,96 %
18.08.2016 12:46 21,1 C 69 % 1009,2 hPa 0,0 l/m 6,4 km/h (2 Bft) SW 214 0 min 0,000 mm 1,8 UV-I 242 W/m 15,2 C 21,1 C 9,7 km/h (2 Bft) 96,67 %
18.08.2016 12:48 21,2 C 70 % 1009,3 hPa 0,0 l/m 5,8 km/h (2 Bft) SW 231 0 min 0,000 mm 1,6 UV-I 234 W/m 15,5 C 21,2 C 11,3 km/h (2 Bft) 98,21 %
18.08.2016 12:50 21,2 C 68 % 1009,3 hPa 0,0 l/m 12,2 km/h (2 Bft) SO 146 0 min 0,000 mm 1,7 UV-I 262 W/m 15,1 C 19,4 C 20,9 km/h (4 Bft) 96,00 %
18.08.2016 12:52 21,1 C 69 % 1009,3 hPa 0,0 l/m 12,0 km/h (2 Bft) S-SW 204 0 min 0,000 mm 1,9 UV-I 268 W/m 15,2 C 19,3 C 19,3 km/h (3 Bft) 97,87 %
18.08.2016 12:54 21,0 C 68 % 1009,3 hPa 0,0 l/m 10,8 km/h (2 Bft) SO 136 0 min 0,000 mm 2,2 UV-I 282 W/m 14,9 C 19,5 C 16,1 km/h (3 Bft) 100,00 %
18.08.2016 12:56 20,9 C 68 % 1009,3 hPa 0,0 l/m 11,9 km/h (2 Bft) S-SW 192 0 min 0,000 mm 2,7 UV-I 323 W/m 14,8 C 19,1 C 20,9 km/h (4 Bft) 100,00 %
18.08.2016 12:58 21,1 C 69 % 1009,3 hPa 0,0 l/m 12,1 km/h (2 Bft) S 184 0 min 0,000 mm 4,1 UV-I 355 W/m 15,2 C 19,3 C 19,3 km/h (3 Bft) 94,74 %
18.08.2016 13:00 21,3 C 68 % 1009,2 hPa 0,0 l/m 11,8 km/h (2 Bft) S 173 0 min 0,204 mm 4,1 UV-I 398 W/m 15,1 C 19,6 C 19,3 km/h (3 Bft) 100,00 %
18.08.2016 13:02 21,4 C 67 % 1009,2 hPa 0,0 l/m 7,4 km/h (2 Bft) S-SW 205 2 min 0,000 mm 5,1 UV-I 676 W/m 15,0 C 21,0 C 14,5 km/h (3 Bft) 97,87 %
18.08.2016 13:04 21,7 C 67 % 1009,1 hPa 0,0 l/m 18,1 km/h (3 Bft) SW 215 2 min 0,000 mm 5,2 UV-I 903 W/m 15,3 C 18,7 C 27,4 km/h (4 Bft) 100,00 %
18.08.2016 13:06 21,8 C 65 % 1009,2 hPa 0,0 l/m 15,7 km/h (3 Bft) W-SW 240 2 min 0,000 mm 5,4 UV-I 932 W/m 14,9 C 19,3 C 29,0 km/h (5 Bft) 100,00 %
18.08.2016 13:08 21,8 C 64 % 1009,2 hPa 0,0 l/m 15,5 km/h (3 Bft) SW 230 2 min 0,000 mm 4,3 UV-I 594 W/m 14,7 C 19,3 C 22,5 km/h (4 Bft) 94,74 %
18.08.2016 13:10 21,6 C 66 % 1009,2 hPa 0,0 l/m 10,6 km/h (2 Bft) SW 214 0 min 0,000 mm 3,3 UV-I 290 W/m 15,0 C 20,2 C 16,1 km/h (3 Bft) 100,00 %
18.08.2016 13:12 21,5 C 65 % 1009,2 hPa 0,0 l/m 11,8 km/h (2 Bft) SW 224 2 min 0,000 mm 3,9 UV-I 486 W/m 14,6 C 19,8 C 19,3 km/h (3 Bft) 100,00 %
18.08.2016 13:14 21,3 C 66 % 1009,1 hPa 0,0 l/m 12,5 km/h (3 Bft) S-SO 150 0 min 0,000 mm 3,3 UV-I 335 W/m 14,7 C 19,4 C 24,1 km/h (4 Bft) 98,00 %
18.08.2016 13:16 21,3 C 67 % 1009,1 hPa 0,0 l/m 6,9 km/h (2 Bft) S-SO 148 0 min 0,000 mm 3,7 UV-I 330 W/m 14,9 C 21,1 C 12,9 km/h (3 Bft) 98,00 %
18.08.2016 13:18 21,4 C 66 % 1009,1 hPa 0,0 l/m 8,8 km/h (2 Bft) S-SW 205 0 min 0,000 mm 4,1 UV-I 346 W/m 14,8 C 20,6 C 17,7 km/h (3 Bft) 100,00 %
18.08.2016 13:20 21,7 C 67 % 1009,1 hPa 0,0 l/m 9,9 km/h (2 Bft) S-SW 211 2 min 0,000 mm 5,2 UV-I 854 W/m 15,3 C 20,5 C 14,5 km/h (3 Bft) 100,00 %
18.08.2016 13:22 22,0 C 68 % 1009,1 hPa 0,0 l/m 9,7 km/h (2 Bft) S-SW 213 2 min 0,000 mm 3,7 UV-I 841 W/m 15,8 C 20,9 C 16,1 km/h (3 Bft) 100,00 %
18.08.2016 13:24 22,1 C 64 % 1009,1 hPa 0,0 l/m 7,4 km/h (2 Bft) S 173 2 min 0,000 mm 5,1 UV-I 802 W/m 15,0 C 21,8 C 12,9 km/h (3 Bft) 100,00 %
18.08.2016 13:26 22,1 C 67 % 1009,0 hPa 0,0 l/m 8,8 km/h (2 Bft) S-SO 163 2 min 0,000 mm 5,1 UV-I 781 W/m 15,7 C 21,3 C 16,1 km/h (3 Bft) 100,00 %
18.08.2016 13:28 21,9 C 64 % 1009,0 hPa 0,0 l/m 6,5 km/h (2 Bft) S 171 2 min 0,000 mm 5,1 UV-I 778 W/m 14,8 C 21,9 C 12,9 km/h (3 Bft) 100,00 %
18.08.2016 13:30 22,1 C 65 % 1009,0 hPa 0,0 l/m 9,4 km/h (2 Bft) W-SW 246 2 min 0,000 mm 5,1 UV-I 801 W/m 15,2 C 21,1 C 14,5 km/h (3 Bft) 100,00 %
18.08.2016 13:32 22,3 C 66 % 1008,9 hPa 0,0 l/m 11,9 km/h (2 Bft) S 175 2 min 0,000 mm 5,1 UV-I 804 W/m 15,6 C 20,7 C 24,1 km/h (4 Bft) 100,00 %
18.08.2016 13:34 22,5 C 63 % 1008,9 hPa 0,0 l/m 12,3 km/h (3 Bft) S 180 2 min 0,000 mm 5,1 UV-I 802 W/m 15,1 C 20,8 C 20,9 km/h (4 Bft) 100,00 %
18.08.2016 13:36 22,4 C 62 % 1008,8 hPa 0,0 l/m 17,0 km/h (3 Bft) SW 225 2 min 0,000 mm 5,1 UV-I 795 W/m 14,8 C 19,8 C 22,5 km/h (4 Bft) 100,00 %
18.08.2016 13:38 22,4 C 63 % 1008,8 hPa 0,0 l/m 8,9 km/h (2 Bft) S-SW 194 2 min 0,000 mm 5,0 UV-I 796 W/m 15,0 C 21,6 C 12,9 km/h (3 Bft) 100,00 %
18.08.2016 13:40 22,6 C 65 % 1008,8 hPa 0,0 l/m 8,9 km/h (2 Bft) SW 234 2 min 0,000 mm 5,0 UV-I 798 W/m 15,7 C 21,8 C 14,5 km/h (3 Bft) 100,00 %
18.08.2016 13:42 22,8 C 63 % 1008,7 hPa 0,0 l/m 15,5 km/h (3 Bft) SW 222 2 min 0,000 mm 5,0 UV-I 810 W/m 15,4 C 20,6 C 27,4 km/h (4 Bft) 100,00 %
18.08.2016 13:44 22,9 C 60 % 1008,7 hPa 0,0 l/m 12,6 km/h (3 Bft) W-SW 238 2 min 0,000 mm 5,1 UV-I 838 W/m 14,7 C 21,2 C 17,7 km/h (3 Bft) 97,37 %
18.08.2016 13:46 22,7 C 60 % 1008,7 hPa 0,0 l/m 13,5 km/h (3 Bft) W-SW 258 2 min 0,000 mm 3,9 UV-I 863 W/m 14,5 C 20,8 C 20,9 km/h (4 Bft) 100,00 %
18.08.2016 13:48 22,6 C 63 % 1008,6 hPa 0,0 l/m 11,4 km/h (2 Bft) SW 232 0 min 0,000 mm 3,5 UV-I 431 W/m 15,2 C 21,2 C 20,9 km/h (4 Bft) 98,15 %
18.08.2016 13:50 22,4 C 62 % 1008,7 hPa 0,0 l/m 12,0 km/h (2 Bft) S-SW 211 0 min 0,000 mm 3,6 UV-I 378 W/m 14,8 C 20,8 C 19,3 km/h (3 Bft) 100,00 %
18.08.2016 13:52 22,4 C 62 % 1008,6 hPa 0,0 l/m 10,1 km/h (2 Bft) W 270 2 min 0,000 mm 4,0 UV-I 453 W/m 14,8 C 21,3 C 22,5 km/h (4 Bft) 100,00 %
18.08.2016 13:54 22,4 C 64 % 1008,6 hPa 0,0 l/m 12,6 km/h (3 Bft) S-SW 211 2 min 0,000 mm 4,0 UV-I 727 W/m 15,2 C 20,7 C 22,5 km/h (4 Bft) 100,00 %
18.08.2016 13:56 22,3 C 64 % 1008,6 hPa 0,0 l/m 12,0 km/h (2 Bft) S-SW 203 0 min 0,000 mm 3,8 UV-I 405 W/m 15,2 C 20,7 C 20,9 km/h (4 Bft) 97,37 %
18.08.2016 13:58 22,2 C 63 % 1008,7 hPa 0,0 l/m 12,2 km/h (2 Bft) S-SW 212 2 min 0,000 mm 3,9 UV-I 436 W/m 14,8 C 20,5 C 17,7 km/h (3 Bft) 100,00 %
18.08.2016 14:00 22,2 C 66 % 1008,7 hPa 0,0 l/m 9,1 km/h (2 Bft) SW 216 2 min 0,457 mm 4,3 UV-I 468 W/m 15,5 C 21,3 C 14,5 km/h (3 Bft) 100,00 %
18.08.2016 14:02 22,4 C 65 % 1008,7 hPa 0,0 l/m 13,9 km/h (3 Bft) SW 228 2 min 0,000 mm 5,2 UV-I 907 W/m 15,5 C 20,4 C 22,5 km/h (4 Bft) 100,00 %
18.08.2016 14:04 22,5 C 63 % 1008,7 hPa 0,0 l/m 16,9 km/h (3 Bft) W-SW 248 2 min 0,000 mm 5,0 UV-I 850 W/m 15,1 C 19,9 C 25,7 km/h (4 Bft) 100,00 %
18.08.2016 14:06 22,7 C 63 % 1008,7 hPa 0,0 l/m 13,0 km/h (3 Bft) S-SO 159 2 min 0,000 mm 4,9 UV-I 812 W/m 15,3 C 20,9 C 24,1 km/h (4 Bft) 100,00 %
18.08.2016 14:08 22,7 C 61 % 1008,7 hPa 0,0 l/m 11,8 km/h (2 Bft) S 170 2 min 0,000 mm 4,9 UV-I 791 W/m 14,8 C 21,2 C 19,3 km/h (3 Bft) 100,00 %
18.08.2016 14:10 22,8 C 61 % 1008,7 hPa 0,0 l/m 9,2 km/h (2 Bft) S 183 2 min 0,000 mm 4,8 UV-I 784 W/m 14,9 C 21,9 C 19,3 km/h (3 Bft) 97,73 %
18.08.2016 14:12 22,8 C 62 % 1008,7 hPa 0,0 l/m 9,0 km/h (2 Bft) SW 221 2 min 0,000 mm 4,8 UV-I 778 W/m 15,1 C 22,0 C 14,5 km/h (3 Bft) 100,00 %
18.08.2016 14:14 23,0 C 62 % 1008,7 hPa 0,0 l/m 13,4 km/h (3 Bft) S 182 2 min 0,000 mm 4,8 UV-I 774 W/m 15,3 C 21,2 C 19,3 km/h (3 Bft) 100,00 %
18.08.2016 14:16 22,8 C 60 % 1008,7 hPa 0,0 l/m 9,9 km/h (2 Bft) S 181 2 min 0,000 mm 4,8 UV-I 771 W/m 14,6 C 21,8 C 17,7 km/h (3 Bft) 96,23 %
18.08.2016 14:18 22,8 C 59 % 1008,7 hPa 0,0 l/m 13,6 km/h (3 Bft) S-SW 199 2 min 0,000 mm 4,8 UV-I 766 W/m 14,4 C 20,9 C 17,7 km/h (3 Bft) 95,74 %
18.08.2016 14:20 22,7 C 60 % 1008,7 hPa 0,0 l/m 11,2 km/h (2 Bft) S-SW 194 2 min 0,000 mm 4,7 UV-I 760 W/m 14,5 C 21,3 C 17,7 km/h (3 Bft) 97,37 %
18.08.2016 14:22 22,7 C 59 % 1008,7 hPa 0,0 l/m 13,8 km/h (3 Bft) S-SW 196 2 min 0,000 mm 4,7 UV-I 758 W/m 14,3 C 20,8 C 17,7 km/h (3 Bft) 98,00 %
18.08.2016 14:24 22,6 C 61 % 1008,6 hPa 0,0 l/m 9,4 km/h (2 Bft) SW 215 2 min 0,000 mm 4,6 UV-I 756 W/m 14,7 C 21,7 C 20,9 km/h (4 Bft) 97,56 %
18.08.2016 14:26 22,7 C 60 % 1008,6 hPa 0,0 l/m 11,7 km/h (2 Bft) S 188 2 min 0,000 mm 4,6 UV-I 756 W/m 14,5 C 21,2 C 20,9 km/h (4 Bft) 96,23 %
18.08.2016 14:28 22,8 C 60 % 1008,6 hPa 0,0 l/m 10,3 km/h (2 Bft) S-SW 207 2 min 0,000 mm 4,6 UV-I 753 W/m 14,6 C 21,7 C 17,7 km/h (3 Bft) 97,56 %
18.08.2016 14:30 22,9 C 61 % 1008,6 hPa 0,0 l/m 15,4 km/h (3 Bft) SW 222 2 min 0,000 mm 4,5 UV-I 749 W/m 15,0 C 20,7 C 22,5 km/h (4 Bft) 98,21 %
18.08.2016 14:32 22,9 C 61 % 1008,6 hPa 0,0 l/m 9,3 km/h (2 Bft) S-SW 204 2 min 0,000 mm 4,5 UV-I 745 W/m 15,0 C 22,0 C 16,1 km/h (3 Bft) 97,37 %
18.08.2016 14:34 22,9 C 61 % 1008,6 hPa 0,0 l/m 12,4 km/h (3 Bft) S-SW 192 2 min 0,000 mm 4,4 UV-I 740 W/m 15,0 C 21,3 C 19,3 km/h (3 Bft) 96,00 %
18.08.2016 14:36 22,9 C 60 % 1008,6 hPa 0,0 l/m 12,6 km/h (3 Bft) W-SW 241 2 min 0,000 mm 4,4 UV-I 739 W/m 14,7 C 21,2 C 20,9 km/h (4 Bft) 98,00 %
18.08.2016 14:38 22,8 C 58 % 1008,6 hPa 0,0 l/m 13,5 km/h (3 Bft) S-SO 162 2 min 0,000 mm 4,4 UV-I 737 W/m 14,1 C 20,9 C 19,3 km/h (3 Bft) 97,56 %
18.08.2016 14:40 22,8 C 59 % 1008,5 hPa 0,0 l/m 8,7 km/h (2 Bft) SW 219 2 min 0,000 mm 4,4 UV-I 737 W/m 14,4 C 22,1 C 16,1 km/h (3 Bft) 96,23 %
18.08.2016 14:42 22,8 C 59 % 1008,5 hPa 0,0 l/m 9,4 km/h (2 Bft) S-SW 194 2 min 0,000 mm 4,3 UV-I 733 W/m 14,4 C 21,9 C 17,7 km/h (3 Bft) 97,62 %
18.08.2016 14:44 22,8 C 59 % 1008,4 hPa 0,0 l/m 10,4 km/h (2 Bft) W-SW 242 2 min 0,000 mm 4,3 UV-I 728 W/m 14,4 C 21,6 C 20,9 km/h (4 Bft) 96,15 %
18.08.2016 14:46 22,9 C 60 % 1008,3 hPa 0,0 l/m 13,4 km/h (3 Bft) S-SW 212 2 min 0,000 mm 4,3 UV-I 728 W/m 14,7 C 21,1 C 19,3 km/h (3 Bft) 97,87 %
18.08.2016 14:48 22,8 C 60 % 1008,3 hPa 0,0 l/m 6,6 km/h (2 Bft) S 171 2 min 0,000 mm 4,2 UV-I 726 W/m 14,6 C 22,7 C 12,9 km/h (3 Bft) 97,44 %
18.08.2016 14:50 22,9 C 61 % 1008,3 hPa 0,0 l/m 11,1 km/h (2 Bft) W-SW 246 2 min 0,000 mm 4,2 UV-I 722 W/m 15,0 C 21,6 C 16,1 km/h (3 Bft) 100,00 %
18.08.2016 14:52 23,1 C 61 % 1008,3 hPa 0,0 l/m 8,1 km/h (2 Bft) W 259 2 min 0,000 mm 4,2 UV-I 719 W/m 15,2 C 22,6 C 12,9 km/h (3 Bft) 100,00 %
18.08.2016 14:54 23,3 C 58 % 1008,2 hPa 0,0 l/m 4,9 km/h (1 Bft) S 180 2 min 0,000 mm 4,2 UV-I 716 W/m 14,6 C 23,3 C 11,3 km/h (2 Bft) 97,37 %
18.08.2016 14:56 23,3 C 59 % 1008,2 hPa 0,0 l/m 6,4 km/h (2 Bft) S 169 2 min 0,000 mm 4,1 UV-I 718 W/m 14,8 C 23,3 C 11,3 km/h (2 Bft) 100,00 %
18.08.2016 14:58 23,4 C 58 % 1008,2 hPa 0,0 l/m 7,3 km/h (2 Bft) S-SO 168 2 min 0,000 mm 4,1 UV-I 714 W/m 14,7 C 23,1 C 12,9 km/h (3 Bft) 100,00 %
18.08.2016 15:00 23,4 C 58 % 1008,2 hPa 0,0 l/m 7,9 km/h (2 Bft) SW 216 2 min 0,508 mm 4,0 UV-I 712 W/m 14,7 C 22,9 C 12,9 km/h (3 Bft) 100,00 %
18.08.2016 15:02 23,5 C 59 % 1008,1 hPa 0,0 l/m 9,7 km/h (2 Bft) W 261 2 min 0,000 mm 4,0 UV-I 709 W/m 15,0 C 22,6 C 19,3 km/h (3 Bft) 100,00 %
18.08.2016 15:04 23,6 C 57 % 1008,1 hPa 0,0 l/m 14,3 km/h (3 Bft) SW 224 2 min 0,000 mm 4,0 UV-I 705 W/m 14,6 C 21,7 C 20,9 km/h (4 Bft) 100,00 %
18.08.2016 15:06 23,4 C 56 % 1008,1 hPa 0,0 l/m 5,9 km/h (2 Bft) SW 234 2 min 0,000 mm 3,9 UV-I 701 W/m 14,1 C 23,4 C 11,3 km/h (2 Bft) 98,00 %
18.08.2016 15:08 23,3 C 58 % 1008,1 hPa 0,0 l/m 5,9 km/h (2 Bft) W-SW 251 2 min 0,000 mm 3,9 UV-I 697 W/m 14,6 C 23,3 C 11,3 km/h (2 Bft) 98,00 %
18.08.2016 15:10 23,4 C 58 % 1008,1 hPa 0,0 l/m 8,7 km/h (2 Bft) W-SW 238 2 min 0,000 mm 3,9 UV-I 699 W/m 14,7 C 22,7 C 16,1 km/h (3 Bft) 100,00 %
18.08.2016 15:12 23,6 C 57 % 1008,1 hPa 0,0 l/m 9,0 km/h (2 Bft) W-SW 248 2 min 0,000 mm 3,9 UV-I 693 W/m 14,6 C 22,9 C 19,3 km/h (3 Bft) 100,00 %
18.08.2016 15:14 23,6 C 59 % 1008,0 hPa 0,0 l/m 6,4 km/h (2 Bft) W-SW 249 2 min 0,000 mm 3,8 UV-I 693 W/m 15,1 C 23,6 C 12,9 km/h (3 Bft) 98,00 %
18.08.2016 15:16 23,7 C 58 % 1008,0 hPa 0,0 l/m 12,2 km/h (2 Bft) W-SW 248 2 min 0,000 mm 3,8 UV-I 689 W/m 14,9 C 22,3 C 20,9 km/h (4 Bft) 100,00 %
18.08.2016 15:18 23,7 C 57 % 1008,0 hPa 0,0 l/m 10,1 km/h (2 Bft) W-SW 241 2 min 0,000 mm 3,8 UV-I 685 W/m 14,7 C 22,7 C 14,5 km/h (3 Bft) 100,00 %
18.08.2016 15:20 23,7 C 58 % 1008,0 hPa 0,0 l/m 6,1 km/h (2 Bft) S-SW 207 2 min 0,000 mm 3,6 UV-I 681 W/m 14,9 C 23,7 C 11,3 km/h (2 Bft) 100,00 %
18.08.2016 15:22 23,7 C 55 % 1008,0 hPa 0,0 l/m 6,6 km/h (2 Bft) S 190 2 min 0,000 mm 3,6 UV-I 678 W/m 14,1 C 23,6 C 14,5 km/h (3 Bft) 100,00 %
18.08.2016 15:24 23,7 C 57 % 1008,0 hPa 0,0 l/m 7,6 km/h (2 Bft) S 173 2 min 0,000 mm 3,6 UV-I 676 W/m 14,7 C 23,3 C 12,9 km/h (3 Bft) 98,11 %
18.08.2016 15:26 23,7 C 54 % 1008,0 hPa 0,0 l/m 9,5 km/h (2 Bft) S 186 2 min 0,000 mm 3,6 UV-I 671 W/m 13,8 C 22,8 C 17,7 km/h (3 Bft) 100,00 %
18.08.2016 15:28 23,7 C 55 % 1008,0 hPa 0,0 l/m 10,2 km/h (2 Bft) S-SW 207 2 min 0,000 mm 3,5 UV-I 661 W/m 14,1 C 22,7 C 17,7 km/h (3 Bft) 100,00 %
18.08.2016 15:30 23,8 C 56 % 1008,0 hPa 0,0 l/m 7,7 km/h (2 Bft) W-SW 240 2 min 0,000 mm 3,5 UV-I 659 W/m 14,5 C 23,4 C 17,7 km/h (3 Bft) 98,39 %
18.08.2016 15:32 23,8 C 57 % 1008,0 hPa 0,0 l/m 9,8 km/h (2 Bft) S 177 2 min 0,000 mm 3,5 UV-I 660 W/m 14,8 C 22,9 C 14,5 km/h (3 Bft) 100,00 %
18.08.2016 15:34 23,8 C 56 % 1008,0 hPa 0,0 l/m 9,7 km/h (2 Bft) W-SW 246 2 min 0,000 mm 3,4 UV-I 658 W/m 14,5 C 22,9 C 17,7 km/h (3 Bft) 97,56 %
18.08.2016 15:36 23,8 C 56 % 1008,1 hPa 0,0 l/m 10,6 km/h (2 Bft) S-SW 202 2 min 0,000 mm 3,4 UV-I 654 W/m 14,5 C 22,7 C 16,1 km/h (3 Bft) 100,00 %
18.08.2016 15:38 23,7 C 57 % 1008,0 hPa 0,0 l/m 8,6 km/h (2 Bft) W-SW 238 2 min 0,000 mm 3,3 UV-I 647 W/m 14,7 C 23,1 C 14,5 km/h (3 Bft) 97,37 %
18.08.2016 15:40 23,8 C 58 % 1008,0 hPa 0,0 l/m 5,3 km/h (1 Bft) W-SW 252 2 min 0,000 mm 3,3 UV-I 641 W/m 15,0 C 23,8 C 14,5 km/h (3 Bft) 100,00 %
18.08.2016 15:42 23,8 C 56 % 1007,9 hPa 0,0 l/m 8,3 km/h (2 Bft) SW 222 2 min 0,000 mm 3,2 UV-I 637 W/m 14,5 C 23,3 C 11,3 km/h (2 Bft) 97,56 %
18.08.2016 15:44 23,8 C 55 % 1007,9 hPa 0,0 l/m 5,3 km/h (1 Bft) S-SW 201 2 min 0,000 mm 3,2 UV-I 634 W/m 14,2 C 23,8 C 11,3 km/h (2 Bft) 100,00 %
18.08.2016 15:46 23,9 C 57 % 1007,8 hPa 0,0 l/m 9,7 km/h (2 Bft) SW 233 2 min 0,000 mm 3,1 UV-I 632 W/m 14,9 C 23,0 C 17,7 km/h (3 Bft) 100,00 %
18.08.2016 15:48 24,0 C 56 % 1007,8 hPa 0,0 l/m 13,3 km/h (3 Bft) SW 218 2 min 0,000 mm 3,1 UV-I 626 W/m 14,7 C 22,4 C 17,7 km/h (3 Bft) 100,00 %
18.08.2016 15:50 24,1 C 57 % 1007,8 hPa 0,0 l/m 9,8 km/h (2 Bft) S-SW 193 2 min 0,000 mm 3,1 UV-I 624 W/m 15,0 C 23,2 C 19,3 km/h (3 Bft) 100,00 %
18.08.2016 15:52 24,1 C 56 % 1007,9 hPa 0,0 l/m 11,0 km/h (2 Bft) W-SW 242 2 min 0,000 mm 3,0 UV-I 621 W/m 14,8 C 23,0 C 17,7 km/h (3 Bft) 98,21 %
18.08.2016 15:54 24,1 C 57 % 1007,8 hPa 0,0 l/m 5,3 km/h (1 Bft) W-SW 244 2 min 0,000 mm 3,0 UV-I 615 W/m 15,0 C 24,1 C 8,0 km/h (2 Bft) 100,00 %
18.08.2016 15:56 24,0 C 56 % 1007,8 hPa 0,0 l/m 12,2 km/h (2 Bft) SW 214 2 min 0,000 mm 2,9 UV-I 619 W/m 14,7 C 22,6 C 16,1 km/h (3 Bft) 100,00 %
18.08.2016 15:58 23,9 C 57 % 1007,8 hPa 0,0 l/m 7,7 km/h (2 Bft) S-SW 210 2 min 0,000 mm 2,9 UV-I 622 W/m 14,9 C 23,5 C 12,9 km/h (3 Bft) 100,00 %
18.08.2016 16:00 23,8 C 56 % 1007,8 hPa 0,0 l/m 3,9 km/h (1 Bft) SW 219 2 min 0,000 mm 2,9 UV-I 620 W/m 14,5 C 23,8 C 9,7 km/h (2 Bft) 100,00 %
18.08.2016 16:02 24,1 C 56 % 1007,7 hPa 0,0 l/m 3,3 km/h (1 Bft) S-SO 151 2 min 0,457 mm 2,9 UV-I 623 W/m 14,8 C 24,1 C 8,0 km/h (2 Bft) 100,00 %
18.08.2016 16:04 24,2 C 56 % 1007,7 hPa 0,0 l/m 10,4 km/h (2 Bft) S-SW 194 2 min 0,000 mm 2,8 UV-I 619 W/m 14,9 C 23,2 C 16,1 km/h (3 Bft) 100,00 %
18.08.2016 16:06 24,3 C 58 % 1007,7 hPa 0,0 l/m 8,9 km/h (2 Bft) W-SW 252 2 min 0,000 mm 2,7 UV-I 609 W/m 15,5 C 23,6 C 14,5 km/h (3 Bft) 100,00 %
18.08.2016 16:08 24,4 C 55 % 1007,6 hPa 0,0 l/m 5,4 km/h (1 Bft) W 265 2 min 0,000 mm 2,7 UV-I 613 W/m 14,8 C 24,4 C 9,7 km/h (2 Bft) 100,00 %
18.08.2016 16:10 24,3 C 55 % 1007,6 hPa 0,0 l/m 5,6 km/h (1 Bft) S-SW 207 2 min 0,000 mm 2,7 UV-I 587 W/m 14,7 C 24,3 C 9,7 km/h (2 Bft) 100,00 %
18.08.2016 16:12 24,3 C 56 % 1007,6 hPa 0,0 l/m 9,6 km/h (2 Bft) W-NW 298 2 min 0,000 mm 2,6 UV-I 551 W/m 14,9 C 23,5 C 12,9 km/h (3 Bft) 97,73 %
18.08.2016 16:14 24,3 C 55 % 1007,6 hPa 0,0 l/m 9,0 km/h (2 Bft) W-SW 237 2 min 0,000 mm 2,6 UV-I 598 W/m 14,7 C 23,6 C 12,9 km/h (3 Bft) 97,87 %
18.08.2016 16:16 24,3 C 56 % 1007,6 hPa 0,0 l/m 5,5 km/h (1 Bft) W 265 2 min 0,000 mm 2,6 UV-I 615 W/m 14,9 C 24,3 C 9,7 km/h (2 Bft) 97,87 %
18.08.2016 16:18 24,3 C 57 % 1007,6 hPa 0,0 l/m 7,2 km/h (2 Bft) W-SW 246 2 min 0,000 mm 2,5 UV-I 624 W/m 15,2 C 24,1 C 14,5 km/h (3 Bft) 96,00 %
18.08.2016 16:20 24,4 C 55 % 1007,6 hPa 0,0 l/m 7,0 km/h (2 Bft) W-NW 285 2 min 0,000 mm 2,5 UV-I 605 W/m 14,8 C 24,2 C 11,3 km/h (2 Bft) 95,12 %
18.08.2016 16:22 24,3 C 54 % 1007,6 hPa 0,0 l/m 7,4 km/h (2 Bft) W-SW 257 2 min 0,000 mm 2,5 UV-I 630 W/m 14,4 C 24,0 C 11,3 km/h (2 Bft) 98,00 %
18.08.2016 16:24 24,4 C 55 % 1007,6 hPa 0,0 l/m 5,1 km/h (1 Bft) W 278 2 min 0,000 mm 2,5 UV-I 627 W/m 14,8 C 24,4 C 9,7 km/h (2 Bft) 98,00 %
18.08.2016 16:26 24,4 C 54 % 1007,6 hPa 0,0 l/m 5,3 km/h (1 Bft) W-SW 242 2 min 0,000 mm 2,5 UV-I 617 W/m 14,5 C 24,4 C 12,9 km/h (3 Bft) 97,37 %
18.08.2016 16:28 24,5 C 54 % 1007,6 hPa 0,0 l/m 8,0 km/h (2 Bft) SW 217 2 min 0,000 mm 2,3 UV-I 570 W/m 14,6 C 24,1 C 14,5 km/h (3 Bft) 98,11 %
18.08.2016 16:30 24,3 C 54 % 1007,6 hPa 0,0 l/m 5,5 km/h (1 Bft) W-SW 239 2 min 0,000 mm 2,0 UV-I 425 W/m 14,4 C 24,3 C 12,9 km/h (3 Bft) 98,11 %
18.08.2016 16:32 24,1 C 54 % 1007,5 hPa 0,0 l/m 2,4 km/h (1 Bft) W 262 2 min 0,000 mm 2,0 UV-I 395 W/m 14,2 C 24,1 C 4,8 km/h (1 Bft) 97,37 %
18.08.2016 16:34 24,1 C 55 % 1007,5 hPa 0,0 l/m 1,0 km/h (0 Bft) W 262 2 min 0,000 mm 2,0 UV-I 504 W/m 14,5 C 24,1 C 3,2 km/h (1 Bft) 96,23 %
18.08.2016 16:36 24,2 C 58 % 1007,6 hPa 0,0 l/m 8,8 km/h (2 Bft) SW 234 2 min 0,000 mm 1,9 UV-I 522 W/m 15,4 C 23,6 C 14,5 km/h (3 Bft) 97,73 %
18.08.2016 16:38 24,2 C 56 % 1007,6 hPa 0,0 l/m 7,5 km/h (2 Bft) S-SW 205 2 min 0,000 mm 1,7 UV-I 382 W/m 14,9 C 23,9 C 12,9 km/h (3 Bft) 97,44 %
18.08.2016 16:40 24,0 C 55 % 1007,4 hPa 0,0 l/m 2,9 km/h (1 Bft) S-SW 199 0 min 0,000 mm 1,4 UV-I 252 W/m 14,4 C 24,0 C 6,4 km/h (2 Bft) 98,18 %
18.08.2016 16:42 23,8 C 56 % 1007,4 hPa 0,0 l/m 0,3 km/h (0 Bft) S-SW 199 0 min 0,000 mm 1,2 UV-I 141 W/m 14,5 C 23,8 C 1,6 km/h (1 Bft) 97,87 %
18.08.2016 16:44 23,7 C 58 % 1007,4 hPa 0,0 l/m 1,4 km/h (1 Bft) SW 223 0 min 0,000 mm 1,0 UV-I 121 W/m 14,9 C 23,7 C 4,8 km/h (1 Bft) 97,92 %
18.08.2016 16:46 23,6 C 57 % 1007,3 hPa 0,0 l/m 4,0 km/h (1 Bft) W-SW 254 0 min 0,000 mm 0,8 UV-I 87 W/m 14,6 C 23,6 C 9,7 km/h (2 Bft) 100,00 %
18.08.2016 16:48 23,5 C 58 % 1007,3 hPa 0,0 l/m 4,2 km/h (1 Bft) W 262 0 min 0,000 mm 0,6 UV-I 63 W/m 14,7 C 23,5 C 6,4 km/h (2 Bft) 100,00 %
18.08.2016 16:50 23,3 C 59 % 1007,3 hPa 0,0 l/m 3,2 km/h (1 Bft) W 273 0 min 0,000 mm 0,1 UV-I 52 W/m 14,8 C 23,3 C 6,4 km/h (2 Bft) 97,37 %
18.08.2016 16:52 23,2 C 59 % 1007,4 hPa 0,0 l/m 4,3 km/h (1 Bft) W 277 0 min 0,000 mm 0,0 UV-I 44 W/m 14,7 C 23,2 C 6,4 km/h (2 Bft) 98,00 %
18.08.2016 16:54 23,2 C 60 % 1007,6 hPa 0,0 l/m 4,8 km/h (1 Bft) W 265 0 min 0,000 mm 0,0 UV-I 37 W/m 15,0 C 23,2 C 6,4 km/h (2 Bft) 100,00 %
18.08.2016 16:56 23,1 C 60 % 1007,7 hPa 0,0 l/m 4,3 km/h (1 Bft) W-SW 254 0 min 0,000 mm 0,0 UV-I 31 W/m 14,9 C 23,1 C 6,4 km/h (2 Bft) 100,00 %
18.08.2016 16:58 23,1 C 61 % 1007,9 hPa 0,0 l/m 5,6 km/h (1 Bft) W-SW 254 0 min 0,000 mm 0,0 UV-I 25 W/m 15,2 C 23,1 C 9,7 km/h (2 Bft) 98,00 %
18.08.2016 17:00 22,9 C 61 % 1008,5 hPa 0,0 l/m 14,5 km/h (3 Bft) S-SW 200 0 min 0,279 mm 0,0 UV-I 17 W/m 15,0 C 20,9 C 30,6 km/h (5 Bft) 100,00 %
18.08.2016 17:02 22,6 C 59 % 1008,7 hPa 0,0 l/m 26,5 km/h (4 Bft) W-SW 252 0 min 0,000 mm 0,0 UV-I 9 W/m 14,2 C 18,7 C 46,7 km/h (6 Bft) 97,87 %
18.08.2016 17:04 21,4 C 66 % 1009,2 hPa 0,4 l/m 22,0 km/h (4 Bft) W 264 0 min 0,000 mm 0,0 UV-I 7 W/m 14,8 C 17,7 C 32,2 km/h (5 Bft) 94,74 %
18.08.2016 17:06 20,1 C 70 % 1009,0 hPa 0,8 l/m 28,6 km/h (4 Bft) SW 221 0 min 0,000 mm 0,0 UV-I 8 W/m 14,5 C 15,0 C 41,8 km/h (6 Bft) 100,00 %
18.08.2016 17:08 18,8 C 73 % 1008,9 hPa 0,8 l/m 30,1 km/h (5 Bft) W-NW 294 0 min 0,000 mm 0,0 UV-I 10 W/m 13,9 C 13,0 C 46,7 km/h (6 Bft) 100,00 %
18.08.2016 17:10 17,9 C 76 % 1009,0 hPa 1,0 l/m 33,0 km/h (5 Bft) W-SW 245 0 min 0,000 mm 0,0 UV-I 11 W/m 13,6 C 11,4 C 46,7 km/h (6 Bft) 100,00 %
18.08.2016 17:12 17,1 C 79 % 1008,9 hPa 1,2 l/m 21,0 km/h (4 Bft) W-SW 255 0 min 0,000 mm 0,0 UV-I 11 W/m 13,4 C 12,2 C 30,6 km/h (5 Bft) 96,00 %
18.08.2016 17:14 16,4 C 82 % 1009,0 hPa 1,4 l/m 22,2 km/h (4 Bft) W 272 0 min 0,000 mm 0,0 UV-I 9 W/m 13,3 C 11,1 C 33,8 km/h (5 Bft) 100,00 %
18.08.2016 17:16 15,9 C 84 % 1009,1 hPa 1,2 l/m 19,2 km/h (3 Bft) W 271 0 min 0,000 mm 0,0 UV-I 8 W/m 13,2 C 11,1 C 30,6 km/h (5 Bft) 98,00 %
18.08.2016 17:18 15,6 C 86 % 1009,1 hPa 1,2 l/m 13,7 km/h (3 Bft) NW 311 0 min 0,000 mm 0,0 UV-I 7 W/m 13,3 C 12,3 C 25,7 km/h (4 Bft) 100,00 %
18.08.2016 17:20 15,3 C 87 % 1009,0 hPa 0,4 l/m 9,9 km/h (2 Bft) W-NW 291 0 min 0,000 mm 0,0 UV-I 7 W/m 13,1 C 13,5 C 16,1 km/h (3 Bft) 100,00 %
18.08.2016 17:22 15,2 C 88 % 1009,0 hPa 0,4 l/m 6,4 km/h (2 Bft) SW 236 0 min 0,000 mm 0,0 UV-I 7 W/m 13,2 C 15,2 C 12,9 km/h (3 Bft) 100,00 %
18.08.2016 17:24 15,0 C 89 % 1008,9 hPa 0,2 l/m 4,8 km/h (1 Bft) N-NW 329 0 min 0,000 mm 0,0 UV-I 9 W/m 13,2 C 15,0 C 9,7 km/h (2 Bft) 97,87 %
18.08.2016 17:26 14,9 C 90 % 1008,7 hPa 0,2 l/m 3,3 km/h (1 Bft) NW 307 0 min 0,000 mm 0,0 UV-I 9 W/m 13,3 C 14,9 C 6,4 km/h (2 Bft) 98,21 %
18.08.2016 17:28 14,9 C 91 % 1008,7 hPa 0,0 l/m 2,0 km/h (1 Bft) W-SW 240 0 min 0,000 mm 0,0 UV-I 10 W/m 13,4 C 14,9 C 4,8 km/h (1 Bft) 100,00 %
18.08.2016 17:30 14,9 C 91 % 1008,7 hPa 0,0 l/m 1,1 km/h (1 Bft) W-SW 240 0 min 0,000 mm 0,0 UV-I 11 W/m 13,4 C 14,9 C 4,8 km/h (1 Bft) 100,00 %
18.08.2016 17:32 14,9 C 92 % 1008,7 hPa 0,0 l/m 3,6 km/h (1 Bft) W 259 0 min 0,000 mm 0,0 UV-I 11 W/m 13,6 C 14,9 C 4,8 km/h (1 Bft) 97,87 %
18.08.2016 17:34 14,9 C 91 % 1008,7 hPa 0,2 l/m 5,5 km/h (1 Bft) W-SW 244 0 min 0,000 mm 0,0 UV-I 12 W/m 13,4 C 14,9 C 8,0 km/h (2 Bft) 97,37 %
18.08.2016 17:36 15,1 C 92 % 1008,8 hPa 0,0 l/m 5,4 km/h (1 Bft) W-SW 255 0 min 0,000 mm 0,0 UV-I 13 W/m 13,8 C 15,1 C 9,7 km/h (2 Bft) 100,00 %
18.08.2016 17:38 15,1 C 92 % 1008,8 hPa 0,0 l/m 5,2 km/h (1 Bft) SW 233 0 min 0,000 mm 0,0 UV-I 14 W/m 13,8 C 15,1 C 8,0 km/h (2 Bft) 97,14 %
18.08.2016 17:40 15,2 C 92 % 1008,7 hPa 0,0 l/m 5,2 km/h (1 Bft) W-SW 242 0 min 0,000 mm 0,0 UV-I 16 W/m 13,9 C 15,2 C 8,0 km/h (2 Bft) 100,00 %
18.08.2016 17:42 15,2 C 92 % 1008,7 hPa 0,0 l/m 3,5 km/h (1 Bft) SW 214 0 min 0,000 mm 0,0 UV-I 18 W/m 13,9 C 15,2 C 4,8 km/h (1 Bft) 95,74 %
18.08.2016 17:44 15,3 C 92 % 1008,6 hPa 0,2 l/m 3,9 km/h (1 Bft) S-SO 167 0 min 0,000 mm 0,0 UV-I 20 W/m 14,0 C 15,3 C 9,7 km/h (2 Bft) 100,00 %
18.08.2016 17:46 15,3 C 91 % 1008,7 hPa 0,0 l/m 5,4 km/h (1 Bft) S 180 0 min 0,000 mm 0,0 UV-I 25 W/m 13,8 C 15,3 C 9,7 km/h (2 Bft) 100,00 %
18.08.2016 17:48 15,4 C 92 % 1008,6 hPa 0,0 l/m 5,4 km/h (1 Bft) S-SO 164 0 min 0,000 mm 0,0 UV-I 29 W/m 14,1 C 15,4 C 9,7 km/h (2 Bft) 97,87 %
18.08.2016 17:50 15,5 C 91 % 1008,6 hPa 0,0 l/m 6,8 km/h (2 Bft) S-SO 148 0 min 0,000 mm 0,0 UV-I 35 W/m 14,0 C 15,3 C 11,3 km/h (2 Bft) 100,00 %
18.08.2016 17:52 15,6 C 92 % 1008,6 hPa 0,0 l/m 5,5 km/h (1 Bft) S 181 0 min 0,000 mm 0,0 UV-I 41 W/m 14,3 C 15,6 C 8,0 km/h (2 Bft) 100,00 %
18.08.2016 17:54 15,6 C 92 % 1008,6 hPa 0,0 l/m 4,9 km/h (1 Bft) S-SO 157 0 min 0,000 mm 0,0 UV-I 46 W/m 14,3 C 15,6 C 8,0 km/h (2 Bft) 96,00 %
18.08.2016 17:56 15,5 C 91 % 1008,7 hPa 0,0 l/m 6,0 km/h (2 Bft) S 172 0 min 0,000 mm 0,0 UV-I 48 W/m 14,0 C 15,5 C 8,0 km/h (2 Bft) 100,00 %
18.08.2016 17:58 15,6 C 91 % 1008,7 hPa 0,0 l/m 4,9 km/h (1 Bft) S 186 0 min 0,000 mm 0,0 UV-I 50 W/m 14,1 C 15,6 C 8,0 km/h (2 Bft) 98,00 %
18.08.2016 18:00 15,6 C 92 % 1008,7 hPa 0,0 l/m 4,0 km/h (1 Bft) S 186 0 min 0,026 mm 0,0 UV-I 52 W/m 14,3 C 15,6 C 6,4 km/h (2 Bft) 100,00 %
18.08.2016 18:02 15,7 C 92 % 1008,8 hPa 0,0 l/m 3,9 km/h (1 Bft) S-SO 164 0 min 0,000 mm 0,0 UV-I 54 W/m 14,4 C 15,7 C 6,4 km/h (2 Bft) 95,74 %
18.08.2016 18:04 15,7 C 92 % 1008,8 hPa 0,0 l/m 2,6 km/h (1 Bft) SO 144 0 min 0,000 mm 0,0 UV-I 55 W/m 14,4 C 15,7 C 4,8 km/h (1 Bft) 100,00 %
18.08.2016 18:06 15,7 C 92 % 1008,7 hPa 0,0 l/m 4,2 km/h (1 Bft) N-NO 28 0 min 0,000 mm 0,0 UV-I 59 W/m 14,4 C 15,7 C 6,4 km/h (2 Bft) 100,00 %
18.08.2016 18:08 15,8 C 92 % 1008,8 hPa 0,0 l/m 6,8 km/h (2 Bft) N-NO 22 0 min 0,000 mm 0,0 UV-I 63 W/m 14,5 C 15,6 C 8,0 km/h (2 Bft) 94,64 %
18.08.2016 18:10 15,7 C 92 % 1008,9 hPa 0,0 l/m 3,0 km/h (1 Bft) N-NO 13 0 min 0,000 mm 0,0 UV-I 63 W/m 14,4 C 15,7 C 6,4 km/h (2 Bft) 97,56 %
18.08.2016 18:12 15,7 C 93 % 1009,0 hPa 0,0 l/m 3,9 km/h (1 Bft) NO 43 0 min 0,000 mm 0,0 UV-I 62 W/m 14,6 C 15,7 C 6,4 km/h (2 Bft) 97,87 %
18.08.2016 18:14 15,7 C 93 % 1009,0 hPa 0,0 l/m 4,4 km/h (1 Bft) O-SO 103 0 min 0,000 mm 0,0 UV-I 57 W/m 14,6 C 15,7 C 6,4 km/h (2 Bft) 97,87 %
18.08.2016 18:16 15,7 C 93 % 1009,0 hPa 0,0 l/m 3,7 km/h (1 Bft) O-NO 78 0 min 0,000 mm 0,0 UV-I 53 W/m 14,6 C 15,7 C 4,8 km/h (1 Bft) 98,00 %
18.08.2016 18:18 15,7 C 93 % 1009,1 hPa 0,0 l/m 5,6 km/h (1 Bft) NO 45 0 min 0,000 mm 0,0 UV-I 50 W/m 14,6 C 15,7 C 8,0 km/h (2 Bft) 97,37 %
18.08.2016 18:20 15,8 C 93 % 1009,0 hPa 0,0 l/m 7,6 km/h (2 Bft) O-NO 57 0 min 0,000 mm 0,0 UV-I 49 W/m 14,7 C 15,1 C 9,7 km/h (2 Bft) 96,00 %
18.08.2016 18:22 15,8 C 93 % 1008,9 hPa 0,0 l/m 6,4 km/h (2 Bft) O-NO 78 0 min 0,000 mm 0,0 UV-I 51 W/m 14,7 C 15,8 C 9,7 km/h (2 Bft) 98,00 %
18.08.2016 18:24 15,8 C 93 % 1009,0 hPa 0,0 l/m 4,4 km/h (1 Bft) O-SO 120 0 min 0,000 mm 0,0 UV-I 59 W/m 14,7 C 15,8 C 6,4 km/h (2 Bft) 96,00 %
18.08.2016 18:26 15,9 C 93 % 1009,0 hPa 0,0 l/m 3,0 km/h (1 Bft) O-SO 123 0 min 0,000 mm 0,0 UV-I 72 W/m 14,8 C 15,9 C 6,4 km/h (2 Bft) 97,37 %
18.08.2016 18:28 15,8 C 93 % 1008,8 hPa 0,0 l/m 5,7 km/h (1 Bft) O-SO 103 0 min 0,000 mm 0,0 UV-I 87 W/m 14,7 C 15,8 C 8,0 km/h (2 Bft) 97,87 %
18.08.2016 18:30 15,9 C 94 % 1008,7 hPa 0,0 l/m 6,3 km/h (2 Bft) SO 136 0 min 0,000 mm 0,0 UV-I 105 W/m 14,9 C 15,9 C 9,7 km/h (2 Bft) 98,00 %
18.08.2016 18:32 15,9 C 94 % 1008,8 hPa 0,0 l/m 3,2 km/h (1 Bft) SO 134 0 min 0,000 mm 0,0 UV-I 118 W/m 14,9 C 15,9 C 6,4 km/h (2 Bft) 97,87 %
18.08.2016 18:34 15,9 C 94 % 1008,8 hPa 0,0 l/m 2,0 km/h (1 Bft) SO 134 0 min 0,000 mm 0,0 UV-I 118 W/m 14,9 C 15,9 C 3,2 km/h (1 Bft) 97,44 %
18.08.2016 18:36 15,9 C 93 % 1008,8 hPa 0,0 l/m 3,6 km/h (1 Bft) O-SO 114 0 min 0,000 mm 0,0 UV-I 111 W/m 14,8 C 15,9 C 6,4 km/h (2 Bft) 98,11 %
18.08.2016 18:38 16,1 C 94 % 1008,8 hPa 0,0 l/m 3,4 km/h (1 Bft) O-SO 119 0 min 0,000 mm 0,0 UV-I 99 W/m 15,1 C 16,1 C 6,4 km/h (2 Bft) 95,74 %
18.08.2016 18:40 16,1 C 93 % 1008,8 hPa 0,0 l/m 3,4 km/h (1 Bft) SO 124 0 min 0,000 mm 0,0 UV-I 86 W/m 15,0 C 16,1 C 6,4 km/h (2 Bft) 97,87 %
18.08.2016 18:42 16,1 C 93 % 1008,8 hPa 0,0 l/m 2,3 km/h (1 Bft) O-SO 122 0 min 0,000 mm 0,0 UV-I 74 W/m 15,0 C 16,1 C 4,8 km/h (1 Bft) 97,87 %
18.08.2016 18:44 16,1 C 93 % 1008,8 hPa 0,0 l/m 3,1 km/h (1 Bft) O-SO 107 0 min 0,000 mm 0,0 UV-I 64 W/m 15,0 C 16,1 C 6,4 km/h (2 Bft) 100,00 %
18.08.2016 18:46 16,2 C 94 % 1008,9 hPa 0,0 l/m 2,2 km/h (1 Bft) O-SO 107 0 min 0,000 mm 0,0 UV-I 56 W/m 15,2 C 16,2 C 3,2 km/h (1 Bft) 100,00 %
18.08.2016 18:48 16,2 C 93 % 1008,8 hPa 0,0 l/m 2,6 km/h (1 Bft) O-SO 107 0 min 0,000 mm 0,0 UV-I 50 W/m 15,1 C 16,2 C 4,8 km/h (1 Bft) 94,74 %
18.08.2016 18:50 16,2 C 93 % 1008,8 hPa 0,0 l/m 3,0 km/h (1 Bft) O-SO 107 0 min 0,000 mm 0,0 UV-I 44 W/m 15,1 C 16,2 C 4,8 km/h (1 Bft) 100,00 %
18.08.2016 18:52 16,1 C 92 % 1008,8 hPa 0,0 l/m 2,1 km/h (1 Bft) O-SO 107 0 min 0,000 mm 0,0 UV-I 40 W/m 14,8 C 16,1 C 4,8 km/h (1 Bft) 98,00 %
18.08.2016 18:54 16,1 C 93 % 1008,8 hPa 0,0 l/m 3,3 km/h (1 Bft) O-SO 107 0 min 0,000 mm 0,0 UV-I 38 W/m 15,0 C 16,1 C 4,8 km/h (1 Bft) 100,00 %
18.08.2016 18:56 16,1 C 93 % 1008,7 hPa 0,0 l/m 3,4 km/h (1 Bft) O-SO 107 0 min 0,000 mm 0,0 UV-I 35 W/m 15,0 C 16,1 C 4,8 km/h (1 Bft) 100,00 %
18.08.2016 18:58 16,1 C 93 % 1008,7 hPa 0,0 l/m 3,3 km/h (1 Bft) O-SO 107 0 min 0,000 mm 0,0 UV-I 35 W/m 15,0 C 16,1 C 4,8 km/h (1 Bft) 100,00 %
18.08.2016 19:00 16,2 C 93 % 1008,7 hPa 0,0 l/m 2,3 km/h (1 Bft) SO 130 0 min 0,051 mm 0,0 UV-I 34 W/m 15,1 C 16,2 C 4,8 km/h (1 Bft) 100,00 %
18.08.2016 19:02 16,1 C 93 % 1008,7 hPa 0,0 l/m 1,4 km/h (1 Bft) SO 130 0 min 0,000 mm 0,0 UV-I 32 W/m 15,0 C 16,1 C 3,2 km/h (1 Bft) 100,00 %
18.08.2016 19:04 16,1 C 93 % 1008,7 hPa 0,0 l/m 0,9 km/h (0 Bft) SO 130 0 min 0,000 mm 0,0 UV-I 32 W/m 15,0 C 16,1 C 1,6 km/h (1 Bft) 100,00 %
18.08.2016 19:06 16,0 C 93 % 1008,7 hPa 0,0 l/m 0,8 km/h (0 Bft) SO 130 0 min 0,000 mm 0,0 UV-I 30 W/m 14,9 C 16,0 C 3,2 km/h (1 Bft) 97,14 %
18.08.2016 19:08 16,1 C 93 % 1008,7 hPa 0,0 l/m 1,1 km/h (1 Bft) SO 130 0 min 0,000 mm 0,0 UV-I 32 W/m 15,0 C 16,1 C 3,2 km/h (1 Bft) 98,21 %
18.08.2016 19:10 16,1 C 93 % 1008,7 hPa 0,0 l/m 2,3 km/h (1 Bft) SO 132 0 min 0,000 mm 0,0 UV-I 42 W/m 15,0 C 16,1 C 4,8 km/h (1 Bft) 100,00 %
18.08.2016 19:12 16,1 C 93 % 1008,7 hPa 0,0 l/m 1,1 km/h (1 Bft) SO 132 0 min 0,000 mm 0,0 UV-I 32 W/m 15,0 C 16,1 C 3,2 km/h (1 Bft) 100,00 %
18.08.2016 19:14 16,1 C 93 % 1008,7 hPa 0,0 l/m 2,5 km/h (1 Bft) SO 132 0 min 0,000 mm 0,0 UV-I 34 W/m 15,0 C 16,1 C 3,2 km/h (1 Bft) 100,00 %
18.08.2016 19:16 16,1 C 93 % 1008,7 hPa 0,0 l/m 2,0 km/h (1 Bft) O-SO 117 0 min 0,000 mm 0,0 UV-I 33 W/m 15,0 C 16,1 C 4,8 km/h (1 Bft) 97,87 %
18.08.2016 19:18 16,1 C 93 % 1008,7 hPa 0,0 l/m 0,0 km/h (0 Bft) O-SO 117 0 min 0,000 mm 0,0 UV-I 35 W/m 15,0 C 16,1 C 1,6 km/h (1 Bft) 100,00 %
18.08.2016 19:20 16,1 C 93 % 1008,7 hPa 0,0 l/m 0,1 km/h (0 Bft) O-SO 117 0 min 0,000 mm 0,0 UV-I 33 W/m 15,0 C 16,1 C 1,6 km/h (1 Bft) 100,00 %
18.08.2016 19:22 16,2 C 93 % 1008,8 hPa 0,0 l/m 0,9 km/h (0 Bft) O-SO 117 0 min 0,000 mm 0,0 UV-I 34 W/m 15,1 C 16,2 C 1,6 km/h (1 Bft) 100,00 %
18.08.2016 19:24 16,2 C 93 % 1008,8 hPa 0,0 l/m 0,7 km/h (0 Bft) O-SO 117 0 min 0,000 mm 0,0 UV-I 32 W/m 15,1 C 16,2 C 1,6 km/h (1 Bft) 98,00 %
18.08.2016 19:26 16,2 C 93 % 1008,7 hPa 0,0 l/m 0,1 km/h (0 Bft) O-SO 117 0 min 0,000 mm 0,0 UV-I 29 W/m 15,1 C 16,2 C 1,6 km/h (1 Bft) 100,00 %
18.08.2016 19:28 16,2 C 93 % 1008,7 hPa 0,0 l/m 1,7 km/h (1 Bft) O-SO 117 0 min 0,000 mm 0,0 UV-I 28 W/m 15,1 C 16,2 C 6,4 km/h (2 Bft) 100,00 %
18.08.2016 19:30 16,2 C 93 % 1008,7 hPa 0,0 l/m 3,7 km/h (1 Bft) O-SO 119 0 min 0,000 mm 0,0 UV-I 26 W/m 15,1 C 16,2 C 6,4 km/h (2 Bft) 100,00 %
18.08.2016 19:32 16,2 C 93 % 1008,8 hPa 0,0 l/m 1,9 km/h (1 Bft) O-SO 119 0 min 0,000 mm 0,0 UV-I 26 W/m 15,1 C 16,2 C 4,8 km/h (1 Bft) 97,14 %
18.08.2016 19:34 16,3 C 94 % 1008,8 hPa 0,0 l/m 3,5 km/h (1 Bft) S 173 0 min 0,000 mm 0,0 UV-I 26 W/m 15,3 C 16,3 C 6,4 km/h (2 Bft) 100,00 %
18.08.2016 19:36 16,3 C 94 % 1008,8 hPa 0,0 l/m 0,2 km/h (0 Bft) S 173 0 min 0,000 mm 0,0 UV-I 26 W/m 15,3 C 16,3 C 1,6 km/h (1 Bft) 96,23 %
18.08.2016 19:38 16,2 C 94 % 1008,8 hPa 0,0 l/m 0,0 km/h (0 Bft) S 173 0 min 0,000 mm 0,0 UV-I 26 W/m 15,2 C 16,2 C 0,0 km/h (0 Bft) 100,00 %
18.08.2016 19:40 16,3 C 94 % 1008,8 hPa 0,0 l/m 0,2 km/h (0 Bft) S 173 0 min 0,000 mm 0,0 UV-I 26 W/m 15,3 C 16,3 C 3,2 km/h (1 Bft) 100,00 %
18.08.2016 19:42 16,3 C 94 % 1008,8 hPa 0,0 l/m 0,2 km/h (0 Bft) S 173 0 min 0,000 mm 0,0 UV-I 26 W/m 15,3 C 16,3 C 1,6 km/h (1 Bft) 97,87 %
18.08.2016 19:44 16,3 C 94 % 1008,8 hPa 0,0 l/m 0,0 km/h (0 Bft) S 173 0 min 0,000 mm 0,0 UV-I 26 W/m 15,3 C 16,3 C 0,0 km/h (0 Bft) 100,00 %
18.08.2016 19:46 16,3 C 94 % 1008,8 hPa 0,0 l/m 0,0 km/h (0 Bft) S 173 0 min 0,000 mm 0,0 UV-I 25 W/m 15,3 C 16,3 C 0,0 km/h (0 Bft) 100,00 %
18.08.2016 19:48 16,3 C 94 % 1008,8 hPa 0,0 l/m 0,0 km/h (0 Bft) S 173 0 min 0,000 mm 0,0 UV-I 25 W/m 15,3 C 16,3 C 0,0 km/h (0 Bft) 98,36 %
18.08.2016 19:50 16,3 C 94 % 1008,9 hPa 0,0 l/m 1,3 km/h (1 Bft) S 174 0 min 0,000 mm 0,0 UV-I 23 W/m 15,3 C 16,3 C 3,2 km/h (1 Bft) 100,00 %
18.08.2016 19:52 16,4 C 94 % 1008,9 hPa 0,0 l/m 0,6 km/h (0 Bft) S 174 2 min 0,000 mm 0,0 UV-I 22 W/m 15,4 C 16,4 C 1,6 km/h (1 Bft) 100,00 %
18.08.2016 19:54 16,4 C 94 % 1008,9 hPa 0,0 l/m 1,1 km/h (1 Bft) S 173 2 min 0,000 mm 0,0 UV-I 21 W/m 15,4 C 16,4 C 3,2 km/h (1 Bft) 100,00 %
18.08.2016 19:56 16,3 C 94 % 1008,9 hPa 0,0 l/m 1,7 km/h (1 Bft) S 173 2 min 0,000 mm 0,0 UV-I 20 W/m 15,3 C 16,3 C 3,2 km/h (1 Bft) 97,92 %
18.08.2016 19:58 16,2 C 94 % 1008,9 hPa 0,0 l/m 0,1 km/h (0 Bft) S 173 2 min 0,000 mm 0,0 UV-I 19 W/m 15,2 C 16,2 C 1,6 km/h (1 Bft) 100,00 %
18.08.2016 20:00 16,2 C 94 % 1009,0 hPa 0,0 l/m 0,0 km/h (0 Bft) S 173 2 min 0,025 mm 0,0 UV-I 18 W/m 15,2 C 16,2 C 0,0 km/h (0 Bft) 100,00 %
18.08.2016 20:02 16,2 C 94 % 1009,0 hPa 0,0 l/m 1,5 km/h (1 Bft) S 173 0 min 0,000 mm 0,0 UV-I 16 W/m 15,2 C 16,2 C 3,2 km/h (1 Bft) 100,00 %
18.08.2016 20:04 16,1 C 95 % 1009,1 hPa 0,0 l/m 1,1 km/h (1 Bft) S 173 0 min 0,000 mm 0,0 UV-I 14 W/m 15,3 C 16,1 C 3,2 km/h (1 Bft) 100,00 %
18.08.2016 20:06 16,1 C 95 % 1009,1 hPa 0,0 l/m 0,6 km/h (0 Bft) S 173 0 min 0,000 mm 0,0 UV-I 12 W/m 15,3 C 16,1 C 1,6 km/h (1 Bft) 97,87 %
18.08.2016 20:08 16,1 C 95 % 1009,1 hPa 0,0 l/m 1,6 km/h (1 Bft) S 170 0 min 0,000 mm 0,0 UV-I 10 W/m 15,3 C 16,1 C 6,4 km/h (2 Bft) 96,00 %
18.08.2016 20:10 16,0 C 95 % 1009,1 hPa 0,0 l/m 2,5 km/h (1 Bft) S 170 0 min 0,000 mm 0,0 UV-I 9 W/m 15,2 C 16,0 C 6,4 km/h (2 Bft) 96,00 %
18.08.2016 20:12 15,9 C 95 % 1009,1 hPa 0,0 l/m 1,1 km/h (1 Bft) S 169 0 min 0,000 mm 0,0 UV-I 5 W/m 15,1 C 15,9 C 1,6 km/h (1 Bft) 94,29 %
18.08.2016 20:14 15,9 C 95 % 1009,1 hPa 0,0 l/m 0,8 km/h (0 Bft) S 170 0 min 0,000 mm 0,0 UV-I 1 W/m 15,1 C 15,9 C 1,6 km/h (1 Bft) 98,11 %
18.08.2016 20:16 15,9 C 95 % 1009,1 hPa 0,0 l/m 0,0 km/h (0 Bft) S 169 0 min 0,000 mm 0,0 UV-I 0 W/m 15,1 C 15,9 C 1,6 km/h (1 Bft) 97,87 %
18.08.2016 20:18 15,9 C 95 % 1009,1 hPa 0,0 l/m 1,5 km/h (1 Bft) S 170 0 min 0,000 mm 0,0 UV-I 0 W/m 15,1 C 15,9 C 3,2 km/h (1 Bft) 98,00 %
18.08.2016 20:20 15,9 C 95 % 1009,1 hPa 0,0 l/m 1,9 km/h (1 Bft) S 170 0 min 0,000 mm 0,0 UV-I 0 W/m 15,1 C 15,9 C 3,2 km/h (1 Bft) 97,56 %
18.08.2016 20:22 15,8 C 95 % 1009,1 hPa 0,0 l/m 0,5 km/h (0 Bft) S 170 0 min 0,000 mm 0,0 UV-I 0 W/m 15,0 C 15,8 C 1,6 km/h (1 Bft) 96,30 %
18.08.2016 20:24 15,8 C 95 % 1009,2 hPa 0,0 l/m 0,0 km/h (0 Bft) S 170 0 min 0,000 mm 0,0 UV-I 0 W/m 15,0 C 15,8 C 0,0 km/h (0 Bft) 94,74 %
18.08.2016 20:26 15,8 C 95 % 1009,2 hPa 0,0 l/m 1,4 km/h (1 Bft) S 169 0 min 0,000 mm 0,0 UV-I 0 W/m 15,0 C 15,8 C 3,2 km/h (1 Bft) 98,00 %
18.08.2016 20:28 15,8 C 95 % 1009,3 hPa 0,0 l/m 0,4 km/h (0 Bft) S 170 0 min 0,000 mm 0,0 UV-I 0 W/m 15,0 C 15,8 C 1,6 km/h (1 Bft) 97,87 %
18.08.2016 20:30 15,8 C 95 % 1009,2 hPa 0,0 l/m 0,2 km/h (0 Bft) S 170 0 min 0,000 mm 0,0 UV-I 0 W/m 15,0 C 15,8 C 1,6 km/h (1 Bft) 98,00 %
18.08.2016 20:32 15,8 C 95 % 1009,2 hPa 0,0 l/m 0,0 km/h (0 Bft) S 170 0 min 0,000 mm 0,0 UV-I 0 W/m 15,0 C 15,8 C 0,0 km/h (0 Bft) 97,44 %
18.08.2016 20:34 15,8 C 95 % 1009,2 hPa 0,0 l/m 2,4 km/h (1 Bft) S 170 0 min 0,000 mm 0,0 UV-I 0 W/m 15,0 C 15,8 C 6,4 km/h (2 Bft) 97,78 %
18.08.2016 20:36 15,8 C 95 % 1009,2 hPa 0,0 l/m 3,4 km/h (1 Bft) S 169 0 min 0,000 mm 0,0 UV-I 0 W/m 15,0 C 15,8 C 6,4 km/h (2 Bft) 98,08 %
18.08.2016 20:38 15,7 C 95 % 1009,3 hPa 0,0 l/m 1,9 km/h (1 Bft) S 170 0 min 0,000 mm 0,0 UV-I 0 W/m 14,9 C 15,7 C 3,2 km/h (1 Bft) 95,74 %
18.08.2016 20:40 15,8 C 96 % 1009,3 hPa 0,0 l/m 0,8 km/h (0 Bft) S 170 0 min 0,000 mm 0,0 UV-I 0 W/m 15,2 C 15,8 C 1,6 km/h (1 Bft) 95,74 %
18.08.2016 20:42 15,7 C 95 % 1009,2 hPa 0,0 l/m 0,3 km/h (0 Bft) S 170 0 min 0,000 mm 0,0 UV-I 0 W/m 14,9 C 15,7 C 1,6 km/h (1 Bft) 100,00 %
18.08.2016 20:44 15,6 C 95 % 1009,3 hPa 0,0 l/m 0,0 km/h (0 Bft) S 170 0 min 0,000 mm 0,0 UV-I 0 W/m 14,8 C 15,6 C 0,0 km/h (0 Bft) 98,00 %
18.08.2016 20:46 15,5 C 95 % 1009,2 hPa 0,0 l/m 0,0 km/h (0 Bft) S 170 0 min 0,000 mm 0,0 UV-I 0 W/m 14,7 C 15,5 C 1,6 km/h (1 Bft) 100,00 %
18.08.2016 20:48 15,4 C 95 % 1009,3 hPa 0,0 l/m 0,8 km/h (0 Bft) S 169 0 min 0,000 mm 0,0 UV-I 0 W/m 14,6 C 15,4 C 1,6 km/h (1 Bft) 100,00 %
18.08.2016 20:50 15,3 C 95 % 1009,3 hPa 0,0 l/m 0,1 km/h (0 Bft) S 169 0 min 0,000 mm 0,0 UV-I 0 W/m 14,5 C 15,3 C 1,6 km/h (1 Bft) 100,00 %
18.08.2016 20:52 15,3 C 95 % 1009,3 hPa 0,0 l/m 0,4 km/h (0 Bft) S 169 0 min 0,000 mm 0,0 UV-I 0 W/m 14,5 C 15,3 C 3,2 km/h (1 Bft) 100,00 %
18.08.2016 20:54 15,3 C 96 % 1009,3 hPa 0,0 l/m 1,7 km/h (1 Bft) S 170 0 min 0,000 mm 0,0 UV-I 0 W/m 14,7 C 15,3 C 3,2 km/h (1 Bft) 100,00 %
18.08.2016 20:56 15,3 C 96 % 1009,3 hPa 0,0 l/m 2,5 km/h (1 Bft) S 169 0 min 0,000 mm 0,0 UV-I 0 W/m 14,7 C 15,3 C 3,2 km/h (1 Bft) 100,00 %
18.08.2016 20:58 15,4 C 96 % 1009,3 hPa 0,0 l/m 1,5 km/h (1 Bft) S 170 0 min 0,000 mm 0,0 UV-I 0 W/m 14,8 C 15,4 C 3,2 km/h (1 Bft) 100,00 %
18.08.2016 21:00 15,4 C 96 % 1009,3 hPa 0,0 l/m 3,5 km/h (1 Bft) S-SO 165 0 min 0,000 mm 0,0 UV-I 0 W/m 14,8 C 15,4 C 6,4 km/h (2 Bft) 100,00 %
18.08.2016 21:02 15,4 C 96 % 1009,3 hPa 0,0 l/m 3,8 km/h (1 Bft) SO 133 0 min 0,000 mm 0,0 UV-I 0 W/m 14,8 C 15,4 C 6,4 km/h (2 Bft) 100,00 %
18.08.2016 21:04 15,4 C 96 % 1009,3 hPa 0,0 l/m 3,5 km/h (1 Bft) O-SO 115 0 min 0,000 mm 0,0 UV-I 0 W/m 14,8 C 15,4 C 4,8 km/h (1 Bft) 100,00 %
18.08.2016 21:06 15,4 C 96 % 1009,3 hPa 0,0 l/m 2,9 km/h (1 Bft) O-SO 115 0 min 0,000 mm 0,0 UV-I 0 W/m 14,8 C 15,4 C 4,8 km/h (1 Bft) 100,00 %
18.08.2016 21:08 15,4 C 96 % 1009,3 hPa 0,0 l/m 3,1 km/h (1 Bft) O-SO 115 0 min 0,000 mm 0,0 UV-I 0 W/m 14,8 C 15,4 C 4,8 km/h (1 Bft) 100,00 %
18.08.2016 21:10 15,4 C 96 % 1009,3 hPa 0,0 l/m 2,0 km/h (1 Bft) O-SO 115 0 min 0,000 mm 0,0 UV-I 0 W/m 14,8 C 15,4 C 3,2 km/h (1 Bft) 100,00 %
18.08.2016 21:12 15,4 C 96 % 1009,3 hPa 0,0 l/m 1,6 km/h (1 Bft) O-SO 115 0 min 0,000 mm 0,0 UV-I 0 W/m 14,8 C 15,4 C 3,2 km/h (1 Bft) 100,00 %
18.08.2016 21:14 15,4 C 96 % 1009,4 hPa 0,0 l/m 0,1 km/h (0 Bft) O-SO 115 0 min 0,000 mm 0,0 UV-I 0 W/m 14,8 C 15,4 C 1,6 km/h (1 Bft) 100,00 %
18.08.2016 21:16 15,4 C 96 % 1009,4 hPa 0,0 l/m 0,0 km/h (0 Bft) O-SO 115 0 min 0,000 mm 0,0 UV-I 0 W/m 14,8 C 15,4 C 0,0 km/h (0 Bft) 98,00 %
18.08.2016 21:18 15,4 C 96 % 1009,4 hPa 0,0 l/m 0,0 km/h (0 Bft) O-SO 115 0 min 0,000 mm 0,0 UV-I 0 W/m 14,8 C 15,4 C 0,0 km/h (0 Bft) 100,00 %
18.08.2016 21:20 15,3 C 96 % 1009,4 hPa 0,0 l/m 1,6 km/h (1 Bft) O-SO 115 0 min 0,000 mm 0,0 UV-I 0 W/m 14,7 C 15,3 C 3,2 km/h (1 Bft) 100,00 %
18.08.2016 21:22 15,3 C 96 % 1009,4 hPa 0,0 l/m 0,5 km/h (0 Bft) O-SO 115 0 min 0,000 mm 0,0 UV-I 0 W/m 14,7 C 15,3 C 1,6 km/h (1 Bft) 100,00 %
18.08.2016 21:24 15,3 C 96 % 1009,4 hPa 0,0 l/m 2,2 km/h (1 Bft) O-SO 115 0 min 0,000 mm 0,0 UV-I 0 W/m 14,7 C 15,3 C 4,8 km/h (1 Bft) 100,00 %
18.08.2016 21:26 15,2 C 96 % 1009,5 hPa 0,0 l/m 2,7 km/h (1 Bft) O-SO 115 0 min 0,000 mm 0,0 UV-I 0 W/m 14,6 C 15,2 C 3,2 km/h (1 Bft) 100,00 %
18.08.2016 21:28 15,2 C 96 % 1009,5 hPa 0,0 l/m 3,4 km/h (1 Bft) SO 146 0 min 0,000 mm 0,0 UV-I 0 W/m 14,6 C 15,2 C 4,8 km/h (1 Bft) 100,00 %
18.08.2016 21:30 15,2 C 96 % 1009,5 hPa 0,0 l/m 0,5 km/h (0 Bft) SO 146 0 min 0,000 mm 0,0 UV-I 0 W/m 14,6 C 15,2 C 3,2 km/h (1 Bft) 100,00 %
18.08.2016 21:32 15,2 C 96 % 1009,5 hPa 0,0 l/m 0,0 km/h (0 Bft) SO 146 0 min 0,000 mm 0,0 UV-I 0 W/m 14,6 C 15,2 C 0,0 km/h (0 Bft) 100,00 %
18.08.2016 21:34 15,2 C 96 % 1009,5 hPa 0,0 l/m 0,0 km/h (0 Bft) SO 146 0 min 0,000 mm 0,0 UV-I 0 W/m 14,6 C 15,2 C 0,0 km/h (0 Bft) 100,00 %
18.08.2016 21:36 15,2 C 96 % 1009,5 hPa 0,0 l/m 0,0 km/h (0 Bft) SO 146 0 min 0,000 mm 0,0 UV-I 0 W/m 14,6 C 15,2 C 0,0 km/h (0 Bft) 100,00 %
18.08.2016 21:38 15,2 C 96 % 1009,5 hPa 0,0 l/m 0,0 km/h (0 Bft) SO 146 0 min 0,000 mm 0,0 UV-I 0 W/m 14,6 C 15,2 C 1,6 km/h (1 Bft) 100,00 %
18.08.2016 21:40 15,2 C 96 % 1009,5 hPa 0,0 l/m 0,9 km/h (0 Bft) SO 146 0 min 0,000 mm 0,0 UV-I 0 W/m 14,6 C 15,2 C 4,8 km/h (1 Bft) 100,00 %
18.08.2016 21:42 15,1 C 96 % 1009,5 hPa 0,0 l/m 3,7 km/h (1 Bft) SO 146 0 min 0,000 mm 0,0 UV-I 0 W/m 14,5 C 15,1 C 4,8 km/h (1 Bft) 100,00 %
18.08.2016 21:44 15,0 C 96 % 1009,5 hPa 0,0 l/m 3,7 km/h (1 Bft) SO 146 0 min 0,000 mm 0,0 UV-I 0 W/m 14,4 C 15,0 C 4,8 km/h (1 Bft) 97,37 %
18.08.2016 21:46 14,9 C 96 % 1009,5 hPa 0,0 l/m 2,4 km/h (1 Bft) SO 146 0 min 0,000 mm 0,0 UV-I 0 W/m 14,3 C 14,9 C 3,2 km/h (1 Bft) 100,00 %
18.08.2016 21:48 14,9 C 96 % 1009,5 hPa 0,0 l/m 1,6 km/h (1 Bft) SO 146 0 min 0,000 mm 0,0 UV-I 0 W/m 14,3 C 14,9 C 3,2 km/h (1 Bft) 100,00 %
18.08.2016 21:50 14,9 C 96 % 1009,5 hPa 0,0 l/m 2,3 km/h (1 Bft) SO 146 0 min 0,000 mm 0,0 UV-I 0 W/m 14,3 C 14,9 C 3,2 km/h (1 Bft) 100,00 %
18.08.2016 21:52 14,9 C 96 % 1009,5 hPa 0,0 l/m 1,9 km/h (1 Bft) SO 146 0 min 0,000 mm 0,0 UV-I 0 W/m 14,3 C 14,9 C 3,2 km/h (1 Bft) 100,00 %
18.08.2016 21:54 14,9 C 96 % 1009,5 hPa 0,0 l/m 0,4 km/h (0 Bft) SO 146 0 min 0,000 mm 0,0 UV-I 0 W/m 14,3 C 14,9 C 3,2 km/h (1 Bft) 100,00 %
18.08.2016 21:56 14,9 C 96 % 1009,5 hPa 0,0 l/m 0,0 km/h (0 Bft) SO 146 0 min 0,000 mm 0,0 UV-I 0 W/m 14,3 C 14,9 C 0,0 km/h (0 Bft) 100,00 %
18.08.2016 21:58 15,0 C 97 % 1009,5 hPa 0,0 l/m 0,0 km/h (0 Bft) SO 146 0 min 0,000 mm 0,0 UV-I 0 W/m 14,5 C 15,0 C 0,0 km/h (0 Bft) 100,00 %
18.08.2016 22:00 15,1 C 97 % 1009,6 hPa 0,0 l/m 0,1 km/h (0 Bft) SO 146 0 min 0,000 mm 0,0 UV-I 0 W/m 14,6 C 15,1 C 1,6 km/h (1 Bft) 100,00 %
18.08.2016 22:02 15,1 C 97 % 1009,7 hPa 0,0 l/m 0,3 km/h (0 Bft) SO 146 0 min 0,000 mm 0,0 UV-I 0 W/m 14,6 C 15,1 C 1,6 km/h (1 Bft) 100,00 %
18.08.2016 22:04 15,1 C 96 % 1009,7 hPa 0,0 l/m 1,7 km/h (1 Bft) SO 146 0 min 0,000 mm 0,0 UV-I 0 W/m 14,5 C 15,1 C 3,2 km/h (1 Bft) 100,00 %
18.08.2016 22:06 15,1 C 96 % 1009,6 hPa 0,0 l/m 2,1 km/h (1 Bft) SO 146 0 min 0,000 mm 0,0 UV-I 0 W/m 14,5 C 15,1 C 3,2 km/h (1 Bft) 97,73 %
18.08.2016 22:08 15,1 C 97 % 1009,6 hPa 0,0 l/m 1,0 km/h (0 Bft) SO 146 0 min 0,000 mm 0,0 UV-I 0 W/m 14,6 C 15,1 C 1,6 km/h (1 Bft) 97,37 %
18.08.2016 22:10 15,1 C 97 % 1009,7 hPa 0,0 l/m 1,1 km/h (1 Bft) SO 146 0 min 0,000 mm 0,0 UV-I 0 W/m 14,6 C 15,1 C 3,2 km/h (1 Bft) 98,00 %
18.08.2016 22:12 15,1 C 97 % 1009,7 hPa 0,0 l/m 1,7 km/h (1 Bft) SO 146 0 min 0,000 mm 0,0 UV-I 0 W/m 14,6 C 15,1 C 3,2 km/h (1 Bft) 98,11 %
18.08.2016 22:14 15,2 C 97 % 1009,7 hPa 0,0 l/m 0,0 km/h (0 Bft) SO 146 0 min 0,000 mm 0,0 UV-I 0 W/m 14,7 C 15,2 C 1,6 km/h (1 Bft) 95,74 %
18.08.2016 22:16 15,2 C 97 % 1009,7 hPa 0,0 l/m 0,8 km/h (0 Bft) SO 146 0 min 0,000 mm 0,0 UV-I 0 W/m 14,7 C 15,2 C 1,6 km/h (1 Bft) 97,37 %
18.08.2016 22:18 15,1 C 96 % 1009,8 hPa 0,0 l/m 1,6 km/h (1 Bft) SO 146 0 min 0,000 mm 0,0 UV-I 0 W/m 14,5 C 15,1 C 3,2 km/h (1 Bft) 98,00 %
18.08.2016 22:20 15,1 C 96 % 1009,8 hPa 0,0 l/m 2,0 km/h (1 Bft) SO 146 0 min 0,000 mm 0,0 UV-I 0 W/m 14,5 C 15,1 C 3,2 km/h (1 Bft) 97,87 %
18.08.2016 22:22 15,1 C 97 % 1009,8 hPa 0,0 l/m 2,9 km/h (1 Bft) SO 146 0 min 0,000 mm 0,0 UV-I 0 W/m 14,6 C 15,1 C 4,8 km/h (1 Bft) 96,00 %
18.08.2016 22:24 15,1 C 97 % 1009,8 hPa 0,0 l/m 2,5 km/h (1 Bft) SO 146 0 min 0,000 mm 0,0 UV-I 0 W/m 14,6 C 15,1 C 3,2 km/h (1 Bft) 97,87 %
18.08.2016 22:26 15,1 C 97 % 1009,8 hPa 0,0 l/m 2,2 km/h (1 Bft) SO 146 0 min 0,000 mm 0,0 UV-I 0 W/m 14,6 C 15,1 C 3,2 km/h (1 Bft) 98,00 %
18.08.2016 22:28 15,1 C 97 % 1009,9 hPa 0,0 l/m 1,6 km/h (1 Bft) SO 146 0 min 0,000 mm 0,0 UV-I 0 W/m 14,6 C 15,1 C 3,2 km/h (1 Bft) 94,74 %
18.08.2016 22:30 15,1 C 97 % 1009,9 hPa 0,0 l/m 1,9 km/h (1 Bft) SO 146 0 min 0,000 mm 0,0 UV-I 0 W/m 14,6 C 15,1 C 3,2 km/h (1 Bft) 97,87 %
18.08.2016 22:32 15,2 C 97 % 1010,0 hPa 0,0 l/m 0,2 km/h (0 Bft) SO 146 0 min 0,000 mm 0,0 UV-I 0 W/m 14,7 C 15,2 C 1,6 km/h (1 Bft) 97,22 %
18.08.2016 22:34 15,2 C 97 % 1010,0 hPa 0,0 l/m 0,1 km/h (0 Bft) SO 146 0 min 0,000 mm 0,0 UV-I 0 W/m 14,7 C 15,2 C 1,6 km/h (1 Bft) 98,39 %
18.08.2016 22:36 15,2 C 97 % 1010,1 hPa 0,0 l/m 0,0 km/h (0 Bft) SO 146 0 min 0,000 mm 0,0 UV-I 0 W/m 14,7 C 15,2 C 0,0 km/h (0 Bft) 97,87 %
18.08.2016 22:38 15,2 C 97 % 1010,1 hPa 0,0 l/m 0,0 km/h (0 Bft) SO 146 0 min 0,000 mm 0,0 UV-I 0 W/m 14,7 C 15,2 C 0,0 km/h (0 Bft) 97,87 %
18.08.2016 22:40 15,2 C 97 % 1010,1 hPa 0,0 l/m 0,0 km/h (0 Bft) SO 146 0 min 0,000 mm 0,0 UV-I 0 W/m 14,7 C 15,2 C 0,0 km/h (0 Bft) 97,87 %
18.08.2016 22:42 15,2 C 97 % 1010,2 hPa 0,0 l/m 0,7 km/h (0 Bft) SO 146 0 min 0,000 mm 0,0 UV-I 0 W/m 14,7 C 15,2 C 3,2 km/h (1 Bft) 100,00 %
18.08.2016 22:44 15,1 C 97 % 1010,2 hPa 0,0 l/m 2,8 km/h (1 Bft) SO 146 0 min 0,000 mm 0,0 UV-I 0 W/m 14,6 C 15,1 C 3,2 km/h (1 Bft) 97,87 %
18.08.2016 22:46 15,1 C 97 % 1010,2 hPa 0,0 l/m 4,6 km/h (1 Bft) O 92 0 min 0,000 mm 0,0 UV-I 0 W/m 14,6 C 15,1 C 4,8 km/h (1 Bft) 100,00 %
18.08.2016 22:48 15,1 C 97 % 1010,3 hPa 0,0 l/m 4,2 km/h (1 Bft) N-NO 30 0 min 0,000 mm 0,0 UV-I 0 W/m 14,6 C 15,1 C 6,4 km/h (2 Bft) 98,21 %
18.08.2016 22:50 15,1 C 97 % 1010,4 hPa 0,0 l/m 4,3 km/h (1 Bft) N-NO 29 0 min 0,000 mm 0,0 UV-I 0 W/m 14,6 C 15,1 C 6,4 km/h (2 Bft) 95,74 %
18.08.2016 22:52 15,1 C 97 % 1010,3 hPa 0,0 l/m 2,4 km/h (1 Bft) N-NO 30 0 min 0,000 mm 0,0 UV-I 0 W/m 14,6 C 15,1 C 4,8 km/h (1 Bft) 100,00 %
18.08.2016 22:54 15,1 C 97 % 1010,3 hPa 0,0 l/m 1,5 km/h (1 Bft) N-NO 30 0 min 0,000 mm 0,0 UV-I 0 W/m 14,6 C 15,1 C 4,8 km/h (1 Bft) 100,00 %
18.08.2016 22:56 15,1 C 97 % 1010,3 hPa 0,0 l/m 3,1 km/h (1 Bft) NO 38 0 min 0,000 mm 0,0 UV-I 0 W/m 14,6 C 15,1 C 4,8 km/h (1 Bft) 100,00 %
18.08.2016 22:58 15,1 C 97 % 1010,4 hPa 0,0 l/m 0,7 km/h (0 Bft) NO 38 0 min 0,000 mm 0,0 UV-I 0 W/m 14,6 C 15,1 C 1,6 km/h (1 Bft) 100,00 %
18.08.2016 23:00 15,1 C 97 % 1010,3 hPa 0,0 l/m 0,3 km/h (0 Bft) NO 38 0 min 0,000 mm 0,0 UV-I 0 W/m 14,6 C 15,1 C 1,6 km/h (1 Bft) 100,00 %
18.08.2016 23:02 15,1 C 97 % 1010,3 hPa 0,0 l/m 1,2 km/h (1 Bft) NO 38 0 min 0,000 mm 0,0 UV-I 0 W/m 14,6 C 15,1 C 3,2 km/h (1 Bft) 100,00 %
18.08.2016 23:04 15,1 C 97 % 1010,3 hPa 0,0 l/m 0,5 km/h (0 Bft) NO 38 0 min 0,000 mm 0,0 UV-I 0 W/m 14,6 C 15,1 C 1,6 km/h (1 Bft) 97,87 %
18.08.2016 23:06 15,1 C 97 % 1010,3 hPa 0,0 l/m 3,3 km/h (1 Bft) O 88 0 min 0,000 mm 0,0 UV-I 0 W/m 14,6 C 15,1 C 4,8 km/h (1 Bft) 100,00 %
18.08.2016 23:08 15,1 C 97 % 1010,3 hPa 0,0 l/m 2,5 km/h (1 Bft) O-SO 114 0 min 0,000 mm 0,0 UV-I 0 W/m 14,6 C 15,1 C 4,8 km/h (1 Bft) 98,11 %
18.08.2016 23:10 15,1 C 97 % 1010,3 hPa 0,0 l/m 2,1 km/h (1 Bft) O-SO 114 0 min 0,000 mm 0,0 UV-I 0 W/m 14,6 C 15,1 C 3,2 km/h (1 Bft) 100,00 %
18.08.2016 23:12 15,1 C 97 % 1010,4 hPa 0,0 l/m 1,5 km/h (1 Bft) O-SO 114 0 min 0,000 mm 0,0 UV-I 0 W/m 14,6 C 15,1 C 3,2 km/h (1 Bft) 100,00 %
18.08.2016 23:14 15,1 C 97 % 1010,4 hPa 0,0 l/m 0,6 km/h (0 Bft) O-SO 114 0 min 0,000 mm 0,0 UV-I 0 W/m 14,6 C 15,1 C 1,6 km/h (1 Bft) 97,44 %
18.08.2016 23:16 15,1 C 97 % 1010,4 hPa 0,0 l/m 0,5 km/h (0 Bft) O-SO 114 0 min 0,000 mm 0,0 UV-I 0 W/m 14,6 C 15,1 C 1,6 km/h (1 Bft) 100,00 %
18.08.2016 23:18 15,1 C 97 % 1010,4 hPa 0,0 l/m 1,3 km/h (1 Bft) O-SO 114 0 min 0,000 mm 0,0 UV-I 0 W/m 14,6 C 15,1 C 3,2 km/h (1 Bft) 100,00 %
18.08.2016 23:20 15,1 C 97 % 1010,4 hPa 0,0 l/m 1,3 km/h (1 Bft) O-SO 114 0 min 0,000 mm 0,0 UV-I 0 W/m 14,6 C 15,1 C 1,6 km/h (1 Bft) 97,87 %
18.08.2016 23:22 15,2 C 97 % 1010,4 hPa 0,0 l/m 1,6 km/h (1 Bft) O-SO 114 0 min 0,000 mm 0,0 UV-I 0 W/m 14,7 C 15,2 C 3,2 km/h (1 Bft) 100,00 %
18.08.2016 23:24 15,2 C 97 % 1010,4 hPa 0,0 l/m 1,7 km/h (1 Bft) O-SO 114 0 min 0,000 mm 0,0 UV-I 0 W/m 14,7 C 15,2 C 4,8 km/h (1 Bft) 100,00 %
18.08.2016 23:26 15,2 C 97 % 1010,4 hPa 0,0 l/m 2,3 km/h (1 Bft) O-SO 114 0 min 0,000 mm 0,0 UV-I 0 W/m 14,7 C 15,2 C 4,8 km/h (1 Bft) 98,11 %
18.08.2016 23:28 15,2 C 97 % 1010,3 hPa 0,0 l/m 2,8 km/h (1 Bft) O-SO 114 0 min 0,000 mm 0,0 UV-I 0 W/m 14,7 C 15,2 C 4,8 km/h (1 Bft) 100,00 %
18.08.2016 23:30 15,2 C 97 % 1010,3 hPa 0,0 l/m 1,1 km/h (1 Bft) O-SO 114 0 min 0,000 mm 0,0 UV-I 0 W/m 14,7 C 15,2 C 4,8 km/h (1 Bft) 100,00 %
18.08.2016 23:32 15,2 C 97 % 1010,4 hPa 0,0 l/m 0,6 km/h (0 Bft) O-SO 103 0 min 0,000 mm 0,0 UV-I 0 W/m 14,7 C 15,2 C 3,2 km/h (1 Bft) 100,00 %
18.08.2016 23:34 15,2 C 97 % 1010,4 hPa 0,0 l/m 0,5 km/h (0 Bft) O 100 0 min 0,000 mm 0,0 UV-I 0 W/m 14,7 C 15,2 C 1,6 km/h (1 Bft) 100,00 %
18.08.2016 23:36 15,2 C 97 % 1010,3 hPa 0,0 l/m 2,6 km/h (1 Bft) O 100 0 min 0,000 mm 0,0 UV-I 0 W/m 14,7 C 15,2 C 4,8 km/h (1 Bft) 100,00 %
18.08.2016 23:38 15,1 C 97 % 1010,3 hPa 0,0 l/m 2,3 km/h (1 Bft) O 100 0 min 0,000 mm 0,0 UV-I 0 W/m 14,6 C 15,1 C 3,2 km/h (1 Bft) 97,87 %
18.08.2016 23:40 15,1 C 97 % 1010,3 hPa 0,0 l/m 1,7 km/h (1 Bft) O 100 0 min 0,000 mm 0,0 UV-I 0 W/m 14,6 C 15,1 C 3,2 km/h (1 Bft) 100,00 %
18.08.2016 23:42 15,1 C 97 % 1010,4 hPa 0,0 l/m 3,7 km/h (1 Bft) O 98 0 min 0,000 mm 0,0 UV-I 0 W/m 14,6 C 15,1 C 4,8 km/h (1 Bft) 98,00 %
18.08.2016 23:44 15,1 C 97 % 1010,3 hPa 0,0 l/m 3,4 km/h (1 Bft) O 98 0 min 0,000 mm 0,0 UV-I 0 W/m 14,6 C 15,1 C 4,8 km/h (1 Bft) 100,00 %
18.08.2016 23:46 15,1 C 97 % 1010,3 hPa 0,0 l/m 3,1 km/h (1 Bft) O 98 0 min 0,000 mm 0,0 UV-I 0 W/m 14,6 C 15,1 C 4,8 km/h (1 Bft) 100,00 %
18.08.2016 23:48 15,1 C 97 % 1010,3 hPa 0,0 l/m 2,8 km/h (1 Bft) O 98 0 min 0,000 mm 0,0 UV-I 0 W/m 14,6 C 15,1 C 4,8 km/h (1 Bft) 100,00 %
18.08.2016 23:50 15,1 C 97 % 1010,3 hPa 0,0 l/m 3,2 km/h (1 Bft) O 98 0 min 0,000 mm 0,0 UV-I 0 W/m 14,6 C 15,1 C 4,8 km/h (1 Bft) 100,00 %
18.08.2016 23:52 15,1 C 97 % 1010,4 hPa 0,0 l/m 2,0 km/h (1 Bft) O 98 0 min 0,000 mm 0,0 UV-I 0 W/m 14,6 C 15,1 C 4,8 km/h (1 Bft) 100,00 %
18.08.2016 23:54 15,1 C 97 % 1010,4 hPa 0,0 l/m 1,1 km/h (1 Bft) O 98 0 min 0,000 mm 0,0 UV-I 0 W/m 14,6 C 15,1 C 3,2 km/h (1 Bft) 100,00 %
18.08.2016 23:56 15,0 C 97 % 1010,3 hPa 0,0 l/m 0,9 km/h (0 Bft) O 98 0 min 0,000 mm 0,0 UV-I 0 W/m 14,5 C 15,0 C 1,6 km/h (1 Bft) 100,00 %
18.08.2016 23:58 14,9 C 97 % 1010,4 hPa 0,0 l/m 1,5 km/h (1 Bft) O 98 0 min 0,000 mm 0,0 UV-I 0 W/m 14,4 C 14,9 C 3,2 km/h (1 Bft) 97,56 %
_ Min-Zeit 06:26 15:26 16:46 - 00:00 - - - - - - 06:26 17:14 00:04 06:44
Minimum _ 11,3 C 54 % 1007,3 hPa - 0,0 km/h (0 Bft) - - - - - - 10,4 C 11,1 C 0,0 km/h (0 Bft) 93,62 %
_ Max-Zeit 16:28 21:58 22:50 17:14 17:10 - - 06:14 15:00 13:06 13:06 11:00 16:08 17:02 00:00
Maximum _ 24,5 C 97 % 1010,4 hPa 1,4 l/m 33,0 km/h
W-SW (5 Bft)
- - 2 min 0,508 mm 5,4 UV-I 932 W/m 16,2 C 24,4 C 46,7 km/h
W-SW (6 Bft)
100,00 %
Durchschnitt _ 16,7 C 84 % 1009,2 hPa #9,6 l/m 3,5 km/h (1 Bft) SO - #7:44 h #3,175 mm 2,9 UV-I 343 W/m 13,7 C 16,5 C 6,2 km/h (2 Bft) 98,78 %